Observation data for Weinert on 11/19/2019      Previous  Date       Current Mesonet Observations  Soil Data  Daily Summary Page  Observations in Plain Language
KWE1 190600Z 22005KT 09/03 A2994 RMK A01 T00850031  RH  069%=      5-min Rain = 0
KWE1 190601Z 22005KT 09/03 A2994 RMK A01 T00850031  RH  069%=      5-min Rain = 0
KWE1 190602Z 23005KT 08/03 A2994 RMK A01 T00840031  RH  069%=      5-min Rain = 0
KWE1 190603Z 23005KT 08/03 A2994 RMK A01 T00830031  RH  070%=      5-min Rain = 0
KWE1 190604Z 23005KT 08/03 A2993 RMK A01 T00830031  RH  070%=      5-min Rain = 0
KWE1 190605Z 23005KT 08/03 A2993 RMK A01 T00830032  RH  070%=      5-min Rain = 0
KWE1 190606Z 23005KT 08/03 A2993 RMK A01 T00830032  RH  071%=      5-min Rain = 0
KWE1 190607Z 23005KT 08/03 A2993 RMK A01 T00830032  RH  070%=      5-min Rain = 0
KWE1 190608Z 23005KT 08/03 A2993 RMK A01 T00830032  RH  070%=      5-min Rain = 0
KWE1 190609Z 23005KT 08/03 A2993 RMK A01 T00830032  RH  070%=      5-min Rain = 0
KWE1 190610Z 23004KT 08/03 A2993 RMK A01 T00840033  RH  070%=      5-min Rain = 0
KWE1 190611Z 23004KT 08/03 A2993 RMK A01 T00840032  RH  070%=      5-min Rain = 0
KWE1 190612Z 23004KT 09/03 A2993 RMK A01 T00850032  RH  070%=      5-min Rain = 0
KWE1 190613Z 23004KT 09/03 A2993 RMK A01 T00850033  RH  069%=      5-min Rain = 0
KWE1 190614Z 23004KT 09/03 A2993 RMK A01 T00850032  RH  069%=      5-min Rain = 0
KWE1 190615Z 22004KT 09/03 A2993 RMK A01 T00850032  RH  069%=      5-min Rain = 0
KWE1 190616Z 23004KT 09/03 A2993 RMK A01 T00850032  RH  069%=      5-min Rain = 0
KWE1 190617Z 22004KT 09/03 A2993 RMK A01 T00850032  RH  069%=      5-min Rain = 0
KWE1 190618Z 23004KT 09/03 A2993 RMK A01 T00850032  RH  069%=      5-min Rain = 0
KWE1 190619Z 23005KT 09/03 A2993 RMK A01 T00850032  RH  069%=      5-min Rain = 0
KWE1 190620Z 23005KT 08/03 A2993 RMK A01 T00840032  RH  069%=      5-min Rain = 0
KWE1 190621Z 23005KT 09/03 A2993 RMK A01 T00850032  RH  069%=      5-min Rain = 0
KWE1 190622Z 23004KT 08/03 A2993 RMK A01 T00840032  RH  069%=      5-min Rain = 0
KWE1 190623Z 23005KT 08/03 A2993 RMK A01 T00840032  RH  069%=      5-min Rain = 0
KWE1 190624Z 23005KT 09/03 A2993 RMK A01 T00850032  RH  069%=      5-min Rain = 0
KWE1 190625Z 23005KT 08/03 A2993 RMK A01 T00840031  RH  069%=      5-min Rain = 0
KWE1 190626Z 23005KT 08/03 A2993 RMK A01 T00840031  RH  069%=      5-min Rain = 0
KWE1 190627Z 23005KT 08/03 A2993 RMK A01 T00840031  RH  069%=      5-min Rain = 0
KWE1 190628Z 23005KT 08/03 A2993 RMK A01 T00830031  RH  069%=      5-min Rain = 0
KWE1 190629Z 23006KT 08/03 A2993 RMK A01 T00840031  RH  070%=      5-min Rain = 0
KWE1 190630Z 22005KT 08/03 A2993 RMK A01 T00830031  RH  070%=      5-min Rain = 0
KWE1 190631Z 22005KT 08/03 A2993 RMK A01 T00830031  RH  070%=      5-min Rain = 0
KWE1 190632Z 22005KT 08/03 A2993 RMK A01 T00830031  RH  070%=      5-min Rain = 0
KWE1 190633Z 22005KT 08/03 A2993 RMK A01 T00830031  RH  070%=      5-min Rain = 0
KWE1 190634Z 22005KT 08/03 A2993 RMK A01 T00820031  RH  070%=      5-min Rain = 0
KWE1 190635Z 22005KT 08/03 A2993 RMK A01 T00820031  RH  070%=      5-min Rain = 0
KWE1 190636Z 22005KT 08/03 A2993 RMK A01 T00820031  RH  070%=      5-min Rain = 0
KWE1 190637Z 22006KT 08/03 A2993 RMK A01 T00820032  RH  071%=      5-min Rain = 0
KWE1 190638Z 22005KT 08/03 A2993 RMK A01 T00830033  RH  071%=      5-min Rain = 0
KWE1 190639Z 22006KT 09/03 A2993 RMK A01 T00850034  RH  070%=      5-min Rain = 0
KWE1 190640Z 22006KT 09/03 A2993 RMK A01 T00860034  RH  070%=      5-min Rain = 0
KWE1 190641Z 22006KT 09/03 A2993 RMK A01 T00860034  RH  070%=      5-min Rain = 0
KWE1 190642Z 22006KT 09/03 A2993 RMK A01 T00860034  RH  070%=      5-min Rain = 0
KWE1 190643Z 22006KT 09/03 A2993 RMK A01 T00860033  RH  069%=      5-min Rain = 0
KWE1 190644Z 22006KT 09/03 A2993 RMK A01 T00860033  RH  069%=      5-min Rain = 0
KWE1 190645Z 22005KT 09/03 A2993 RMK A01 T00850032  RH  069%=      5-min Rain = 0
KWE1 190646Z 22006KT 08/03 A2993 RMK A01 T00840032  RH  070%=      5-min Rain = 0
KWE1 190647Z 22006KT 08/03 A2993 RMK A01 T00840033  RH  070%=      5-min Rain = 0
KWE1 190648Z 22006KT 08/03 A2993 RMK A01 T00840033  RH  070%=      5-min Rain = 0
KWE1 190649Z 22006KT 08/03 A2993 RMK A01 T00840033  RH  070%=      5-min Rain = 0
KWE1 190650Z 22005KT 08/03 A2993 RMK A01 T00840033  RH  070%=      5-min Rain = 0
KWE1 190651Z 22006KT 08/03 A2993 RMK A01 T00830033  RH  070%=      5-min Rain = 0
KWE1 190652Z 22006KT 08/03 A2993 RMK A01 T00830033  RH  070%=      5-min Rain = 0
KWE1 190653Z 22006KT 08/03 A2993 RMK A01 T00830032  RH  071%=      5-min Rain = 0
KWE1 190654Z 22006KT 08/03 A2993 RMK A01 T00830033  RH  071%=      5-min Rain = 0
KWE1 190655Z 22006KT 08/03 A2993 RMK A01 T00830033  RH  071%=      5-min Rain = 0
KWE1 190656Z 22005KT 08/03 A2993 RMK A01 T00830033  RH  071%=      5-min Rain = 0
KWE1 190657Z 22005KT 08/03 A2993 RMK A01 T00830034  RH  071%=      5-min Rain = 0
KWE1 190658Z 22006KT 08/03 A2993 RMK A01 T00840034  RH  071%=      5-min Rain = 0
KWE1 190659Z 22006KT 08/03 A2993 RMK A01 T00840034  RH  071%=      5-min Rain = 0
KWE1 190700Z 22005KT 09/04 A2993 RMK A01 T00850035  RH  071%=      5-min Rain = 0
KWE1 190701Z 22005KT 09/04 A2993 RMK A01 T00860035  RH  070%=      5-min Rain = 0
KWE1 190702Z 22005KT 09/04 A2993 RMK A01 T00860035  RH  070%=      5-min Rain = 0
KWE1 190703Z 22005KT 09/04 A2993 RMK A01 T00870035  RH  070%=      5-min Rain = 0
KWE1 190704Z 22005KT 09/04 A2993 RMK A01 T00870035  RH  070%=      5-min Rain = 0
KWE1 190705Z 22005KT 09/04 A2993 RMK A01 T00880035  RH  070%=      5-min Rain = 0
KWE1 190706Z 22004KT 09/04 A2993 RMK A01 T00880035  RH  069%=      5-min Rain = 0
KWE1 190707Z 22004KT 09/04 A2993 RMK A01 T00880035  RH  069%=      5-min Rain = 0
KWE1 190708Z 22004KT 09/03 A2993 RMK A01 T00870034  RH  069%=      5-min Rain = 0
KWE1 190709Z 22004KT 09/03 A2993 RMK A01 T00870033  RH  069%=      5-min Rain = 0
KWE1 190710Z 23003KT 09/03 A2993 RMK A01 T00860033  RH  069%=      5-min Rain = 0
KWE1 190711Z 23004KT 09/03 A2993 RMK A01 T00850032  RH  069%=      5-min Rain = 0
KWE1 190712Z 23004KT 08/03 A2993 RMK A01 T00840032  RH  070%=      5-min Rain = 0
KWE1 190713Z 23004KT 08/03 A2993 RMK A01 T00840033  RH  070%=      5-min Rain = 0
KWE1 190714Z 22004KT 09/03 A2993 RMK A01 T00850033  RH  070%=      5-min Rain = 0
KWE1 190715Z 22004KT 08/03 A2993 RMK A01 T00840033  RH  070%=      5-min Rain = 0
KWE1 190716Z 22004KT 08/03 A2993 RMK A01 T00840033  RH  070%=      5-min Rain = 0
KWE1 190717Z 22005KT 08/03 A2993 RMK A01 T00840032  RH  070%=      5-min Rain = 0
KWE1 190718Z 22005KT 08/03 A2993 RMK A01 T00830032  RH  070%=      5-min Rain = 0
KWE1 190719Z 22005KT 08/03 A2993 RMK A01 T00830033  RH  071%=      5-min Rain = 0
KWE1 190720Z 22005KT 08/03 A2993 RMK A01 T00840033  RH  071%=      5-min Rain = 0
KWE1 190721Z 22005KT 08/03 A2993 RMK A01 T00840033  RH  070%=      5-min Rain = 0
KWE1 190722Z 22005KT 08/03 A2993 RMK A01 T00840034  RH  070%=      5-min Rain = 0
KWE1 190723Z 22005KT 09/03 A2993 RMK A01 T00850034  RH  070%=      5-min Rain = 0
KWE1 190724Z 22005KT 09/03 A2993 RMK A01 T00850034  RH  070%=      5-min Rain = 0
KWE1 190725Z 22005KT 09/03 A2993 RMK A01 T00850034  RH  070%=      5-min Rain = 0
KWE1 190726Z 22005KT 09/03 A2993 RMK A01 T00860034  RH  070%=      5-min Rain = 0
KWE1 190727Z 22005KT 09/03 A2993 RMK A01 T00860034  RH  070%=      5-min Rain = 0
KWE1 190728Z 22005KT 09/03 A2993 RMK A01 T00860034  RH  070%=      5-min Rain = 0
KWE1 190729Z 22005KT 09/03 A2993 RMK A01 T00860034  RH  070%=      5-min Rain = 0
KWE1 190730Z 22005KT 09/03 A2993 RMK A01 T00860034  RH  070%=      5-min Rain = 0
KWE1 190731Z 22005KT 09/03 A2993 RMK A01 T00860034  RH  070%=      5-min Rain = 0
KWE1 190732Z 21005KT 09/04 A2993 RMK A01 T00860035  RH  070%=      5-min Rain = 0
KWE1 190733Z 22005KT 09/04 A2993 RMK A01 T00870035  RH  070%=      5-min Rain = 0
KWE1 190734Z 22005KT 09/04 A2993 RMK A01 T00880036  RH  070%=      5-min Rain = 0
KWE1 190735Z 22005KT 09/04 A2993 RMK A01 T00880036  RH  070%=      5-min Rain = 0
KWE1 190736Z 22005KT 09/04 A2993 RMK A01 T00880036  RH  070%=      5-min Rain = 0
KWE1 190737Z 22006KT 09/04 A2993 RMK A01 T00890036  RH  070%=      5-min Rain = 0
KWE1 190738Z 21006KT 09/04 A2993 RMK A01 T00890037  RH  070%=      5-min Rain = 0
KWE1 190739Z 22006KT 09/04 A2993 RMK A01 T00900037  RH  070%=      5-min Rain = 0
KWE1 190740Z 22006KT 09/04 A2993 RMK A01 T00900037  RH  069%=      5-min Rain = 0
KWE1 190741Z 23005KT 09/04 A2993 RMK A01 T00910037  RH  069%=      5-min Rain = 0
KWE1 190742Z 22005KT 09/04 A2993 RMK A01 T00910037  RH  069%=      5-min Rain = 0
KWE1 190743Z 22005KT 09/04 A2993 RMK A01 T00900037  RH  069%=      5-min Rain = 0
KWE1 190744Z 22005KT 09/04 A2993 RMK A01 T00900036  RH  069%=      5-min Rain = 0
KWE1 190745Z 22006KT 09/04 A2993 RMK A01 T00890036  RH  070%=      5-min Rain = 0
KWE1 190746Z 22005KT 09/04 A2993 RMK A01 T00880036  RH  070%=      5-min Rain = 0
KWE1 190747Z 22005KT 09/04 A2993 RMK A01 T00880036  RH  070%=      5-min Rain = 0
KWE1 190748Z 22005KT 09/04 A2993 RMK A01 T00880036  RH  070%=      5-min Rain = 0
KWE1 190749Z 22005KT 09/04 A2994 RMK A01 T00870035  RH  070%=      5-min Rain = 0
KWE1 190750Z 23004KT 09/04 A2993 RMK A01 T00870035  RH  070%=      5-min Rain = 0
KWE1 190751Z 23005KT 09/04 A2993 RMK A01 T00870035  RH  070%=      5-min Rain = 0
KWE1 190752Z 23005KT 09/03 A2993 RMK A01 T00870034  RH  070%=      5-min Rain = 0
KWE1 190753Z 22005KT 09/03 A2993 RMK A01 T00860034  RH  070%=      5-min Rain = 0
KWE1 190754Z 22004KT 09/03 A2993 RMK A01 T00850034  RH  070%=      5-min Rain = 0
KWE1 190755Z 22004KT 09/03 A2993 RMK A01 T00850034  RH  070%=      5-min Rain = 0
KWE1 190756Z 22004KT 08/03 A2994 RMK A01 T00840034  RH  071%=      5-min Rain = 0
KWE1 190757Z 22005KT 08/03 A2994 RMK A01 T00830034  RH  071%=      5-min Rain = 0
KWE1 190758Z 21005KT 08/03 A2994 RMK A01 T00830034  RH  071%=      5-min Rain = 0
KWE1 190759Z 21005KT 08/03 A2994 RMK A01 T00820034  RH  071%=      5-min Rain = 0
KWE1 190800Z 21005KT 08/03 A2993 RMK A01 T00820034  RH  072%=      5-min Rain = 0
KWE1 190801Z 21005KT 08/04 A2993 RMK A01 T00820035  RH  072%=      5-min Rain = 0
KWE1 190802Z 21005KT 08/04 A2993 RMK A01 T00830036  RH  072%=      5-min Rain = 0
KWE1 190803Z 21005KT 08/04 A2993 RMK A01 T00830036  RH  072%=      5-min Rain = 0
KWE1 190804Z 21005KT 08/04 A2993 RMK A01 T00840036  RH  072%=      5-min Rain = 0
KWE1 190805Z 21004KT 08/04 A2993 RMK A01 T00840036  RH  072%=      5-min Rain = 0
KWE1 190806Z 21004KT 09/04 A2993 RMK A01 T00850035  RH  071%=      5-min Rain = 0
KWE1 190807Z 21004KT 09/04 A2993 RMK A01 T00850035  RH  071%=      5-min Rain = 0
KWE1 190808Z 21004KT 09/04 A2993 RMK A01 T00850035  RH  071%=      5-min Rain = 0
KWE1 190809Z 21004KT 09/04 A2993 RMK A01 T00850035  RH  071%=      5-min Rain = 0
KWE1 190810Z 22003KT 09/04 A2994 RMK A01 T00850035  RH  071%=      5-min Rain = 0
KWE1 190811Z 22003KT 09/03 A2994 RMK A01 T00850034  RH  071%=      5-min Rain = 0
KWE1 190812Z 22003KT 08/03 A2994 RMK A01 T00840034  RH  071%=      5-min Rain = 0
KWE1 190813Z 22003KT 08/03 A2994 RMK A01 T00840034  RH  071%=      5-min Rain = 0
KWE1 190814Z 22002KT 08/03 A2993 RMK A01 T00830033  RH  071%=      5-min Rain = 0
KWE1 190815Z 22002KT 08/03 A2993 RMK A01 T00820033  RH  071%=      5-min Rain = 0
KWE1 190816Z 23002KT 08/03 A2993 RMK A01 T00810032  RH  071%=      5-min Rain = 0
KWE1 190817Z 23002KT 08/03 A2993 RMK A01 T00800032  RH  071%=      5-min Rain = 0
KWE1 190818Z 23001KT 08/03 A2993 RMK A01 T00800032  RH  072%=      5-min Rain = 0
KWE1 190819Z 23001KT 08/03 A2993 RMK A01 T00790031  RH  072%=      5-min Rain = 0
KWE1 190820Z 23001KT 08/03 A2993 RMK A01 T00790032  RH  072%=      5-min Rain = 0
KWE1 190821Z 22001KT 08/03 A2993 RMK A01 T00780032  RH  073%=      5-min Rain = 0
KWE1 190822Z 23002KT 08/03 A2993 RMK A01 T00780032  RH  073%=      5-min Rain = 0
KWE1 190823Z 22002KT 08/03 A2993 RMK A01 T00770032  RH  073%=      5-min Rain = 0
KWE1 190824Z 22002KT 08/03 A2993 RMK A01 T00780033  RH  073%=      5-min Rain = 0
KWE1 190825Z 22002KT 08/04 A2993 RMK A01 T00800035  RH  073%=      5-min Rain = 0
KWE1 190826Z 22003KT 08/04 A2993 RMK A01 T00810035  RH  073%=      5-min Rain = 0
KWE1 190827Z 23002KT 08/04 A2993 RMK A01 T00820035  RH  072%=      5-min Rain = 0
KWE1 190828Z 23002KT 08/03 A2993 RMK A01 T00820034  RH  072%=      5-min Rain = 0
KWE1 190829Z 24002KT 08/03 A2993 RMK A01 T00830033  RH  071%=      5-min Rain = 0
KWE1 190830Z 23002KT 08/03 A2993 RMK A01 T00820032  RH  071%=      5-min Rain = 0
KWE1 190831Z 24002KT 08/03 A2993 RMK A01 T00800030  RH  071%=      5-min Rain = 0
KWE1 190832Z 23002KT 08/03 A2993 RMK A01 T00780029  RH  071%=      5-min Rain = 0
KWE1 190833Z 23002KT 08/03 A2993 RMK A01 T00760028  RH  072%=      5-min Rain = 0
KWE1 190834Z 23002KT 08/03 A2993 RMK A01 T00750029  RH  072%=      5-min Rain = 0
KWE1 190835Z 23002KT 07/03 A2993 RMK A01 T00740029  RH  073%=      5-min Rain = 0
KWE1 190836Z 24002KT 07/03 A2993 RMK A01 T00740029  RH  073%=      5-min Rain = 0
KWE1 190837Z 25002KT 07/03 A2993 RMK A01 T00730029  RH  073%=      5-min Rain = 0
KWE1 190838Z 25002KT 07/03 A2993 RMK A01 T00720028  RH  073%=      5-min Rain = 0
KWE1 190839Z 25002KT 07/03 A2993 RMK A01 T00700026  RH  073%=      5-min Rain = 0
KWE1 190840Z 25002KT 07/03 A2993 RMK A01 T00690026  RH  074%=      5-min Rain = 0
KWE1 190841Z 25002KT 07/03 A2993 RMK A01 T00680026  RH  075%=      5-min Rain = 0
KWE1 190842Z 24002KT 07/03 A2993 RMK A01 T00670026  RH  075%=      5-min Rain = 0
KWE1 190843Z 24002KT 07/03 A2993 RMK A01 T00660026  RH  075%=      5-min Rain = 0
KWE1 190844Z 23003KT 07/03 A2993 RMK A01 T00660026  RH  076%=      5-min Rain = 0
KWE1 190845Z 23003KT 07/03 A2993 RMK A01 T00650026  RH  076%=      5-min Rain = 0
KWE1 190846Z 23003KT 07/03 A2993 RMK A01 T00660028  RH  076%=      5-min Rain = 0
KWE1 190847Z 22003KT 07/03 A2993 RMK A01 T00670029  RH  077%=      5-min Rain = 0
KWE1 190848Z 22003KT 07/03 A2993 RMK A01 T00670029  RH  077%=      5-min Rain = 0
KWE1 190849Z 22004KT 07/03 A2993 RMK A01 T00680029  RH  076%=      5-min Rain = 0
KWE1 190850Z 22004KT 07/03 A2993 RMK A01 T00690030  RH  076%=      5-min Rain = 0
KWE1 190851Z 22004KT 07/03 A2993 RMK A01 T00700030  RH  076%=      5-min Rain = 0
KWE1 190852Z 21004KT 07/03 A2993 RMK A01 T00710030  RH  075%=      5-min Rain = 0
KWE1 190853Z 21005KT 07/03 A2994 RMK A01 T00710029  RH  075%=      5-min Rain = 0
KWE1 190854Z 21005KT 07/03 A2994 RMK A01 T00700028  RH  075%=      5-min Rain = 0
KWE1 190855Z 21005KT 07/03 A2994 RMK A01 T00690028  RH  075%=      5-min Rain = 0
KWE1 190856Z 21005KT 07/03 A2994 RMK A01 T00690029  RH  075%=      5-min Rain = 0
KWE1 190857Z 21005KT 07/03 A2994 RMK A01 T00700030  RH  076%=      5-min Rain = 0
KWE1 190858Z 21005KT 07/03 A2994 RMK A01 T00690029  RH  076%=      5-min Rain = 0
KWE1 190859Z 21005KT 07/03 A2994 RMK A01 T00690030  RH  076%=      5-min Rain = 0
KWE1 190900Z 21005KT 07/03 A2994 RMK A01 T00700030  RH  076%=      5-min Rain = 0
KWE1 190901Z 21004KT 07/03 A2994 RMK A01 T00700031  RH  076%=      5-min Rain = 0
KWE1 190902Z 21004KT 07/03 A2994 RMK A01 T00710031  RH  076%=      5-min Rain = 0
KWE1 190903Z 21003KT 07/03 A2994 RMK A01 T00710032  RH  076%=      5-min Rain = 0
KWE1 190904Z 21004KT 07/03 A2994 RMK A01 T00720032  RH  076%=      5-min Rain = 0
KWE1 190905Z 21004KT 07/03 A2994 RMK A01 T00730032  RH  075%=      5-min Rain = 0
KWE1 190906Z 21004KT 07/03 A2993 RMK A01 T00730032  RH  075%=      5-min Rain = 0
KWE1 190907Z 21004KT 07/03 A2993 RMK A01 T00730031  RH  075%=      5-min Rain = 0
KWE1 190908Z 21003KT 07/03 A2993 RMK A01 T00730031  RH  075%=      5-min Rain = 0
KWE1 190909Z 21003KT 07/03 A2993 RMK A01 T00720029  RH  074%=      5-min Rain = 0
KWE1 190910Z 20003KT 07/03 A2993 RMK A01 T00710028  RH  074%=      5-min Rain = 0
KWE1 190911Z 20004KT 07/03 A2993 RMK A01 T00700027  RH  074%=      5-min Rain = 0
KWE1 190912Z 20004KT 07/03 A2993 RMK A01 T00690028  RH  075%=      5-min Rain = 0
KWE1 190913Z 20004KT 07/03 A2993 RMK A01 T00690028  RH  075%=      5-min Rain = 0
KWE1 190914Z 21004KT 07/03 A2993 RMK A01 T00690028  RH  075%=      5-min Rain = 0
KWE1 190915Z 21004KT 07/03 A2993 RMK A01 T00690028  RH  075%=      5-min Rain = 0
KWE1 190916Z 21004KT 07/03 A2993 RMK A01 T00680027  RH  075%=      5-min Rain = 0
KWE1 190917Z 20004KT 07/03 A2993 RMK A01 T00680027  RH  075%=      5-min Rain = 0
KWE1 190918Z 21004KT 07/03 A2993 RMK A01 T00670027  RH  076%=      5-min Rain = 0
KWE1 190919Z 20004KT 07/03 A2993 RMK A01 T00670027  RH  076%=      5-min Rain = 0
KWE1 190920Z 21004KT 07/03 A2993 RMK A01 T00670028  RH  076%=      5-min Rain = 0
KWE1 190921Z 21004KT 07/03 A2993 RMK A01 T00670029  RH  076%=      5-min Rain = 0
KWE1 190922Z 20003KT 07/03 A2993 RMK A01 T00680029  RH  076%=      5-min Rain = 0
KWE1 190923Z 20003KT 07/03 A2993 RMK A01 T00690029  RH  076%=      5-min Rain = 0
KWE1 190924Z 20003KT 07/03 A2993 RMK A01 T00690028  RH  075%=      5-min Rain = 0
KWE1 190925Z 20003KT 07/03 A2993 RMK A01 T00690028  RH  075%=      5-min Rain = 0
KWE1 190926Z 20003KT 07/03 A2993 RMK A01 T00690027  RH  075%=      5-min Rain = 0
KWE1 190927Z 20003KT 07/03 A2993 RMK A01 T00690027  RH  074%=      5-min Rain = 0
KWE1 190928Z 20003KT 07/03 A2993 RMK A01 T00690027  RH  074%=      5-min Rain = 0
KWE1 190929Z 20003KT 07/03 A2993 RMK A01 T00690027  RH  074%=      5-min Rain = 0
KWE1 190930Z 20004KT 07/03 A2993 RMK A01 T00700027  RH  074%=      5-min Rain = 0
KWE1 190931Z 20004KT 07/03 A2993 RMK A01 T00710028  RH  074%=      5-min Rain = 0
KWE1 190932Z 20004KT 07/03 A2993 RMK A01 T00710027  RH  074%=      5-min Rain = 0
KWE1 190933Z 20004KT 07/03 A2993 RMK A01 T00710027  RH  074%=      5-min Rain = 0
KWE1 190934Z 20004KT 07/03 A2993 RMK A01 T00700026  RH  074%=      5-min Rain = 0
KWE1 190935Z 20004KT 07/03 A2993 RMK A01 T00700027  RH  074%=      5-min Rain = 0
KWE1 190936Z 20003KT 07/03 A2993 RMK A01 T00690027  RH  074%=      5-min Rain = 0
KWE1 190937Z 20003KT 07/03 A2993 RMK A01 T00700028  RH  075%=      5-min Rain = 0
KWE1 190938Z 20004KT 07/03 A2993 RMK A01 T00690027  RH  075%=      5-min Rain = 0
KWE1 190939Z 20004KT 07/03 A2993 RMK A01 T00690028  RH  075%=      5-min Rain = 0
KWE1 190940Z 20004KT 07/03 A2993 RMK A01 T00690028  RH  075%=      5-min Rain = 0
KWE1 190941Z 19004KT 07/03 A2993 RMK A01 T00690028  RH  075%=      5-min Rain = 0
KWE1 190942Z 19004KT 07/03 A2993 RMK A01 T00700029  RH  075%=      5-min Rain = 0
KWE1 190943Z 20004KT 07/03 A2993 RMK A01 T00700029  RH  075%=      5-min Rain = 0
KWE1 190944Z 20003KT 07/03 A2993 RMK A01 T00710029  RH  075%=      5-min Rain = 0
KWE1 190945Z 21003KT 07/03 A2993 RMK A01 T00710029  RH  074%=      5-min Rain = 0
KWE1 190946Z 20003KT 07/03 A2993 RMK A01 T00720029  RH  074%=      5-min Rain = 0
KWE1 190947Z 20003KT 07/03 A2994 RMK A01 T00730029  RH  074%=      5-min Rain = 0
KWE1 190948Z 20003KT 07/03 A2993 RMK A01 T00740030  RH  074%=      5-min Rain = 0
KWE1 190949Z 20003KT 07/03 A2993 RMK A01 T00740029  RH  073%=      5-min Rain = 0
KWE1 190950Z 21003KT 07/03 A2993 RMK A01 T00740028  RH  073%=      5-min Rain = 0
KWE1 190951Z 21003KT 07/03 A2993 RMK A01 T00720027  RH  073%=      5-min Rain = 0
KWE1 190952Z 21003KT 07/03 A2993 RMK A01 T00710026  RH  073%=      5-min Rain = 0
KWE1 190953Z 20003KT 07/03 A2993 RMK A01 T00710027  RH  074%=      5-min Rain = 0
KWE1 190954Z 20003KT 07/03 A2993 RMK A01 T00710028  RH  074%=      5-min Rain = 0
KWE1 190955Z 21003KT 07/03 A2994 RMK A01 T00700027  RH  074%=      5-min Rain = 0
KWE1 190956Z 21003KT 07/03 A2994 RMK A01 T00690025  RH  073%=      5-min Rain = 0
KWE1 190957Z 22003KT 07/02 A2994 RMK A01 T00680024  RH  074%=      5-min Rain = 0
KWE1 190958Z 22003KT 07/02 A2994 RMK A01 T00660024  RH  074%=      5-min Rain = 0
KWE1 190959Z 22003KT 07/02 A2994 RMK A01 T00660024  RH  075%=      5-min Rain = 0
KWE1 191000Z 22002KT 07/03 A2994 RMK A01 T00660025  RH  075%=      5-min Rain = 0
KWE1 191001Z 21003KT 07/02 A2994 RMK A01 T00650024  RH  075%=      5-min Rain = 0
KWE1 191002Z 21002KT 06/02 A2994 RMK A01 T00640023  RH  075%=      5-min Rain = 0
KWE1 191003Z 22003KT 06/02 A2994 RMK A01 T00620021  RH  075%=      5-min Rain = 0
KWE1 191004Z 22002KT 06/02 A2994 RMK A01 T00620022  RH  076%=      5-min Rain = 0
KWE1 191005Z 22002KT 06/02 A2994 RMK A01 T00610022  RH  076%=      5-min Rain = 0
KWE1 191006Z 22003KT 06/02 A2994 RMK A01 T00610022  RH  076%=      5-min Rain = 0
KWE1 191007Z 22002KT 06/02 A2994 RMK A01 T00600022  RH  076%=      5-min Rain = 0
KWE1 191008Z 21003KT 06/02 A2994 RMK A01 T00600023  RH  077%=      5-min Rain = 0
KWE1 191009Z 21003KT 06/02 A2994 RMK A01 T00600024  RH  077%=      5-min Rain = 0
KWE1 191010Z 21003KT 06/02 A2994 RMK A01 T00600023  RH  077%=      5-min Rain = 0
KWE1 191011Z 21003KT 06/02 A2994 RMK A01 T00600024  RH  078%=      5-min Rain = 0
KWE1 191012Z 20003KT 06/03 A2994 RMK A01 T00610025  RH  078%=      5-min Rain = 0
KWE1 191013Z 21003KT 06/02 A2994 RMK A01 T00610024  RH  077%=      5-min Rain = 0
KWE1 191014Z 21002KT 06/02 A2994 RMK A01 T00610024  RH  077%=      5-min Rain = 0
KWE1 191015Z 21002KT 06/02 A2994 RMK A01 T00610023  RH  077%=      5-min Rain = 0
KWE1 191016Z 21002KT 06/02 A2994 RMK A01 T00600023  RH  077%=      5-min Rain = 0
KWE1 191017Z 20002KT 06/02 A2994 RMK A01 T00600024  RH  077%=      5-min Rain = 0
KWE1 191018Z 20002KT 06/02 A2994 RMK A01 T00600024  RH  078%=      5-min Rain = 0
KWE1 191019Z 20003KT 06/02 A2994 RMK A01 T00600024  RH  078%=      5-min Rain = 0
KWE1 191020Z 19003KT 06/03 A2994 RMK A01 T00610025  RH  078%=      5-min Rain = 0
KWE1 191021Z 19002KT 06/03 A2994 RMK A01 T00610025  RH  078%=      5-min Rain = 0
KWE1 191022Z 19003KT 06/03 A2994 RMK A01 T00610026  RH  078%=      5-min Rain = 0
KWE1 191023Z 19003KT 06/03 A2994 RMK A01 T00620027  RH  079%=      5-min Rain = 0
KWE1 191024Z 19003KT 06/03 A2994 RMK A01 T00610027  RH  079%=      5-min Rain = 0
KWE1 191025Z 19002KT 06/03 A2994 RMK A01 T00620027  RH  079%=      5-min Rain = 0
KWE1 191026Z 19003KT 06/03 A2994 RMK A01 T00610027  RH  079%=      5-min Rain = 0
KWE1 191027Z 19003KT 06/03 A2994 RMK A01 T00620027  RH  078%=      5-min Rain = 0
KWE1 191028Z 19003KT 06/03 A2994 RMK A01 T00620027  RH  078%=      5-min Rain = 0
KWE1 191029Z 19003KT 06/03 A2994 RMK A01 T00620027  RH  078%=      5-min Rain = 0
KWE1 191030Z 19003KT 06/03 A2994 RMK A01 T00620027  RH  078%=      5-min Rain = 0
KWE1 191031Z 20002KT 06/03 A2994 RMK A01 T00620026  RH  078%=      5-min Rain = 0
KWE1 191032Z 20002KT 06/03 A2994 RMK A01 T00620026  RH  078%=      5-min Rain = 0
KWE1 191033Z 21002KT 06/03 A2994 RMK A01 T00610026  RH  078%=      5-min Rain = 0
KWE1 191034Z 21002KT 06/03 A2994 RMK A01 T00600025  RH  078%=      5-min Rain = 0
KWE1 191035Z 21002KT 06/02 A2994 RMK A01 T00590024  RH  078%=      5-min Rain = 0
KWE1 191036Z 20002KT 06/02 A2994 RMK A01 T00590024  RH  078%=      5-min Rain = 0
KWE1 191037Z 20002KT 06/02 A2994 RMK A01 T00590023  RH  078%=      5-min Rain = 0
KWE1 191038Z 20002KT 06/02 A2994 RMK A01 T00580023  RH  078%=      5-min Rain = 0
KWE1 191039Z 19002KT 06/02 A2994 RMK A01 T00580022  RH  078%=      5-min Rain = 0
KWE1 191040Z 19002KT 06/02 A2994 RMK A01 T00570022  RH  078%=      5-min Rain = 0
KWE1 191041Z 19002KT 06/02 A2994 RMK A01 T00560021  RH  078%=      5-min Rain = 0
KWE1 191042Z 20002KT 06/02 A2994 RMK A01 T00560021  RH  078%=      5-min Rain = 0
KWE1 191043Z 20002KT 06/02 A2994 RMK A01 T00560021  RH  078%=      5-min Rain = 0
KWE1 191044Z 20001KT 06/02 A2994 RMK A01 T00560022  RH  079%=      5-min Rain = 0
KWE1 191045Z 20001KT 06/02 A2994 RMK A01 T00560021  RH  079%=      5-min Rain = 0
KWE1 191046Z 21001KT 06/02 A2994 RMK A01 T00550020  RH  078%=      5-min Rain = 0
KWE1 191047Z 23001KT 05/02 A2994 RMK A01 T00540019  RH  078%=      5-min Rain = 0
KWE1 191048Z 24001KT 05/02 A2994 RMK A01 T00530017  RH  078%=      5-min Rain = 0
KWE1 191049Z 25001KT 05/02 A2994 RMK A01 T00530017  RH  078%=      5-min Rain = 0
KWE1 191050Z 26001KT 05/02 A2994 RMK A01 T00520017  RH  078%=      5-min Rain = 0
KWE1 191051Z 26001KT 05/02 A2994 RMK A01 T00510017  RH  079%=      5-min Rain = 0
KWE1 191052Z 26001KT 05/02 A2995 RMK A01 T00510018  RH  079%=      5-min Rain = 0
KWE1 191053Z 26000KT 05/02 A2995 RMK A01 T00500018  RH  079%=      5-min Rain = 0
KWE1 191054Z 28000KT 05/02 A2995 RMK A01 T00500018  RH  080%=      5-min Rain = 0
KWE1 191055Z 31000KT 05/02 A2995 RMK A01 T00500019  RH  080%=      5-min Rain = 0
KWE1 191056Z 32001KT 05/02 A2995 RMK A01 T00500018  RH  080%=      5-min Rain = 0
KWE1 191057Z 32001KT 05/02 A2995 RMK A01 T00500018  RH  080%=      5-min Rain = 0
KWE1 191058Z 33001KT 05/02 A2995 RMK A01 T00490017  RH  080%=      5-min Rain = 0
KWE1 191059Z 33000KT 05/02 A2995 RMK A01 T00480017  RH  080%=      5-min Rain = 0
KWE1 191100Z 33000KT 05/02 A2995 RMK A01 T00480017  RH  080%=      5-min Rain = 0
KWE1 191101Z 33000KT 05/02 A2995 RMK A01 T00470016  RH  081%=      5-min Rain = 0
KWE1 191102Z 33000KT 05/02 A2995 RMK A01 T00460016  RH  081%=      5-min Rain = 0
KWE1 191103Z 32000KT 05/02 A2995 RMK A01 T00460017  RH  082%=      5-min Rain = 0
KWE1 191104Z 31000KT 05/02 A2995 RMK A01 T00450017  RH  082%=      5-min Rain = 0
KWE1 191105Z 31000KT 05/02 A2995 RMK A01 T00460018  RH  082%=      5-min Rain = 0
KWE1 191106Z 30000KT 05/02 A2995 RMK A01 T00460019  RH  083%=      5-min Rain = 0
KWE1 191107Z 30000KT 05/02 A2995 RMK A01 T00470020  RH  083%=      5-min Rain = 0
KWE1 191108Z 00000KT 05/02 A2995 RMK A01 T00470021  RH  083%=      5-min Rain = 0
KWE1 191109Z 00000KT 05/02 A2995 RMK A01 T00480023  RH  083%=      5-min Rain = 0
KWE1 191110Z 00000KT 05/02 A2995 RMK A01 T00490024  RH  084%=      5-min Rain = 0
KWE1 191111Z 00000KT 05/02 A2995 RMK A01 T00500024  RH  083%=      5-min Rain = 0
KWE1 191112Z 00000KT 05/02 A2995 RMK A01 T00500024  RH  083%=      5-min Rain = 0
KWE1 191113Z 00000KT 05/02 A2995 RMK A01 T00510024  RH  083%=      5-min Rain = 0
KWE1 191114Z 00000KT 05/03 A2995 RMK A01 T00510025  RH  083%=      5-min Rain = 0
KWE1 191115Z 21000KT 05/02 A2995 RMK A01 T00510024  RH  083%=      5-min Rain = 0
KWE1 191116Z 21001KT 05/03 A2995 RMK A01 T00520025  RH  083%=      5-min Rain = 0
KWE1 191117Z 20001KT 05/03 A2995 RMK A01 T00530026  RH  083%=      5-min Rain = 0
KWE1 191118Z 20002KT 05/03 A2995 RMK A01 T00540026  RH  082%=      5-min Rain = 0
KWE1 191119Z 20002KT 05/02 A2995 RMK A01 T00540024  RH  081%=      5-min Rain = 0
KWE1 191120Z 20002KT 05/02 A2995 RMK A01 T00540024  RH  081%=      5-min Rain = 0
KWE1 191121Z 19002KT 05/02 A2995 RMK A01 T00540024  RH  081%=      5-min Rain = 0
KWE1 191122Z 19002KT 05/02 A2995 RMK A01 T00540023  RH  081%=      5-min Rain = 0
KWE1 191123Z 18002KT 05/02 A2995 RMK A01 T00540024  RH  081%=      5-min Rain = 0
KWE1 191124Z 18002KT 05/02 A2995 RMK A01 T00540023  RH  081%=      5-min Rain = 0
KWE1 191125Z 18002KT 05/02 A2995 RMK A01 T00530022  RH  081%=      5-min Rain = 0
KWE1 191126Z 18002KT 05/02 A2995 RMK A01 T00530023  RH  081%=      5-min Rain = 0
KWE1 191127Z 19003KT 05/02 A2995 RMK A01 T00530023  RH  081%=      5-min Rain = 0
KWE1 191128Z 19003KT 05/02 A2995 RMK A01 T00530023  RH  081%=      5-min Rain = 0
KWE1 191129Z 19003KT 05/02 A2995 RMK A01 T00530023  RH  081%=      5-min Rain = 0
KWE1 191130Z 19002KT 05/02 A2995 RMK A01 T00530023  RH  081%=      5-min Rain = 0
KWE1 191131Z 19002KT 05/02 A2995 RMK A01 T00540023  RH  081%=      5-min Rain = 0
KWE1 191132Z 20003KT 05/02 A2995 RMK A01 T00540024  RH  081%=      5-min Rain = 0
KWE1 191133Z 20002KT 06/02 A2995 RMK A01 T00550023  RH  080%=      5-min Rain = 0
KWE1 191134Z 20002KT 06/02 A2995 RMK A01 T00550022  RH  079%=      5-min Rain = 0
KWE1 191135Z 20002KT 05/02 A2995 RMK A01 T00540020  RH  079%=      5-min Rain = 0
KWE1 191136Z 20002KT 05/02 A2995 RMK A01 T00530020  RH  079%=      5-min Rain = 0
KWE1 191137Z 19002KT 05/02 A2995 RMK A01 T00530021  RH  080%=      5-min Rain = 0
KWE1 191138Z 19001KT 05/02 A2995 RMK A01 T00530021  RH  080%=      5-min Rain = 0
KWE1 191139Z 19002KT 05/02 A2995 RMK A01 T00520020  RH  080%=      5-min Rain = 0
KWE1 191140Z 18002KT 05/02 A2995 RMK A01 T00510019  RH  080%=      5-min Rain = 0
KWE1 191141Z 18002KT 05/02 A2995 RMK A01 T00500018  RH  080%=      5-min Rain = 0
KWE1 191142Z 18002KT 05/02 A2995 RMK A01 T00500018  RH  080%=      5-min Rain = 0
KWE1 191143Z 17001KT 05/02 A2995 RMK A01 T00500019  RH  081%=      5-min Rain = 0
KWE1 191144Z 17001KT 05/02 A2995 RMK A01 T00500019  RH  081%=      5-min Rain = 0
KWE1 191145Z 17001KT 05/02 A2995 RMK A01 T00490018  RH  080%=      5-min Rain = 0
KWE1 191146Z 17001KT 05/02 A2995 RMK A01 T00480018  RH  081%=      5-min Rain = 0
KWE1 191147Z 17001KT 05/02 A2995 RMK A01 T00470017  RH  081%=      5-min Rain = 0
KWE1 191148Z 17001KT 05/02 A2995 RMK A01 T00470017  RH  081%=      5-min Rain = 0
KWE1 191149Z 17001KT 05/02 A2995 RMK A01 T00470017  RH  081%=      5-min Rain = 0
KWE1 191150Z 17001KT 05/02 A2995 RMK A01 T00460016  RH  081%=      5-min Rain = 0
KWE1 191151Z 17001KT 05/02 A2995 RMK A01 T00460017  RH  082%=      5-min Rain = 0
KWE1 191152Z 17001KT 05/02 A2995 RMK A01 T00460018  RH  082%=      5-min Rain = 0
KWE1 191153Z 17001KT 05/02 A2995 RMK A01 T00460019  RH  082%=      5-min Rain = 0
KWE1 191154Z 17001KT 05/02 A2995 RMK A01 T00480021  RH  083%=      5-min Rain = 0
KWE1 191155Z 16001KT 05/02 A2995 RMK A01 T00490021  RH  083%=      5-min Rain = 0
KWE1 191156Z 17001KT 05/02 A2995 RMK A01 T00500022  RH  083%=      5-min Rain = 0
KWE1 191157Z 16001KT 05/02 A2995 RMK A01 T00500022  RH  082%=      5-min Rain = 0
KWE1 191158Z 15000KT 05/02 A2995 RMK A01 T00490020  RH  081%=      5-min Rain = 0
KWE1 191159Z 15000KT 05/02 A2995 RMK A01 T00490019  RH  081%=      5-min Rain = 0
KWE1 191200Z 16000KT 05/02 A2995 RMK A01 T00490020  RH  082%=      5-min Rain = 0
KWE1 191201Z 00000KT 05/02 A2995 RMK A01 T00490021  RH  082%=      5-min Rain = 0
KWE1 191202Z 00000KT 05/02 A2995 RMK A01 T00490021  RH  082%=      5-min Rain = 0
KWE1 191203Z 18000KT 05/02 A2995 RMK A01 T00500022  RH  082%=      5-min Rain = 0
KWE1 191204Z 18001KT 05/02 A2995 RMK A01 T00500022  RH  082%=      5-min Rain = 0
KWE1 191205Z 18001KT 05/02 A2995 RMK A01 T00500021  RH  081%=      5-min Rain = 0
KWE1 191206Z 17002KT 05/02 A2995 RMK A01 T00500020  RH  081%=      5-min Rain = 0
KWE1 191207Z 17001KT 05/02 A2995 RMK A01 T00490018  RH  080%=      5-min Rain = 0
KWE1 191208Z 17001KT 05/02 A2995 RMK A01 T00470016  RH  080%=      5-min Rain = 0
KWE1 191209Z 17002KT 05/02 A2995 RMK A01 T00460016  RH  081%=      5-min Rain = 0
KWE1 191210Z 17002KT 05/02 A2995 RMK A01 T00450016  RH  081%=      5-min Rain = 0
KWE1 191211Z 16001KT 05/02 A2995 RMK A01 T00450016  RH  082%=      5-min Rain = 0
KWE1 191212Z 16001KT 04/02 A2995 RMK A01 T00440016  RH  082%=      5-min Rain = 0
KWE1 191213Z 15001KT 04/02 A2995 RMK A01 T00430016  RH  082%=      5-min Rain = 0
KWE1 191214Z 15001KT 04/02 A2995 RMK A01 T00430016  RH  082%=      5-min Rain = 0
KWE1 191215Z 14001KT 04/02 A2995 RMK A01 T00430016  RH  083%=      5-min Rain = 0
KWE1 191216Z 14001KT 04/02 A2995 RMK A01 T00430016  RH  083%=      5-min Rain = 0
KWE1 191217Z 13001KT 04/02 A2995 RMK A01 T00430017  RH  083%=      5-min Rain = 0
KWE1 191218Z 12001KT 04/02 A2995 RMK A01 T00420016  RH  083%=      5-min Rain = 0
KWE1 191219Z 11001KT 04/02 A2995 RMK A01 T00420015  RH  083%=      5-min Rain = 0
KWE1 191220Z 10001KT 04/02 A2995 RMK A01 T00410015  RH  083%=      5-min Rain = 0
KWE1 191221Z 10001KT 04/01 A2995 RMK A01 T00400013  RH  083%=      5-min Rain = 0
KWE1 191222Z 10002KT 04/01 A2995 RMK A01 T00380011  RH  083%=      5-min Rain = 0
KWE1 191223Z 09002KT 04/01 A2995 RMK A01 T00360009  RH  083%=      5-min Rain = 0
KWE1 191224Z 09002KT 04/01 A2995 RMK A01 T00350010  RH  084%=      5-min Rain = 0
KWE1 191225Z 09003KT 03/01 A2995 RMK A01 T00340010  RH  084%=      5-min Rain = 0
KWE1 191226Z 09002KT 03/01 A2995 RMK A01 T00330010  RH  085%=      5-min Rain = 0
KWE1 191227Z 08002KT 03/01 A2995 RMK A01 T00330011  RH  085%=      5-min Rain = 0
KWE1 191228Z 08002KT 03/01 A2995 RMK A01 T00330012  RH  086%=      5-min Rain = 0
KWE1 191229Z 08002KT 03/01 A2995 RMK A01 T00330012  RH  086%=      5-min Rain = 0
KWE1 191230Z 08003KT 03/01 A2995 RMK A01 T00340013  RH  086%=      5-min Rain = 0
KWE1 191231Z 08003KT 03/01 A2995 RMK A01 T00340013  RH  086%=      5-min Rain = 0
KWE1 191232Z 08003KT 03/01 A2995 RMK A01 T00340012  RH  086%=      5-min Rain = 0
KWE1 191233Z 09003KT 03/01 A2995 RMK A01 T00320009  RH  085%=      5-min Rain = 0
KWE1 191234Z 08003KT 03/01 A2995 RMK A01 T00300007  RH  085%=      5-min Rain = 0
KWE1 191235Z 09003KT 03/01 A2995 RMK A01 T00300008  RH  085%=      5-min Rain = 0
KWE1 191236Z 09003KT 03/01 A2995 RMK A01 T00310011  RH  086%=      5-min Rain = 0
KWE1 191237Z 09003KT 03/02 A2995 RMK A01 T00340015  RH  087%=      5-min Rain = 0
KWE1 191238Z 08003KT 04/02 A2995 RMK A01 T00360017  RH  088%=      5-min Rain = 0
KWE1 191239Z 09003KT 04/02 A2995 RMK A01 T00380018  RH  087%=      5-min Rain = 0
KWE1 191240Z 09003KT 04/02 A2995 RMK A01 T00380018  RH  087%=      5-min Rain = 0
KWE1 191241Z 09003KT 04/02 A2995 RMK A01 T00380017  RH  086%=      5-min Rain = 0
KWE1 191242Z 09003KT 04/02 A2995 RMK A01 T00390018  RH  086%=      5-min Rain = 0
KWE1 191243Z 08002KT 04/02 A2995 RMK A01 T00390017  RH  086%=      5-min Rain = 0
KWE1 191244Z 08002KT 04/02 A2995 RMK A01 T00390017  RH  086%=      5-min Rain = 0
KWE1 191245Z 08003KT 04/02 A2995 RMK A01 T00390017  RH  086%=      5-min Rain = 0
KWE1 191246Z 09002KT 04/02 A2996 RMK A01 T00390017  RH  085%=      5-min Rain = 0
KWE1 191247Z 11002KT 04/02 A2996 RMK A01 T00390017  RH  085%=      5-min Rain = 0
KWE1 191248Z 12003KT 04/02 A2996 RMK A01 T00390016  RH  085%=      5-min Rain = 0
KWE1 191249Z 13004KT 04/02 A2996 RMK A01 T00400017  RH  085%=      5-min Rain = 0
KWE1 191250Z 14004KT 04/02 A2996 RMK A01 T00410018  RH  085%=      5-min Rain = 0
KWE1 191251Z 15005KT 04/02 A2996 RMK A01 T00410017  RH  085%=      5-min Rain = 0
KWE1 191252Z 15006KT 04/02 A2996 RMK A01 T00400016  RH  084%=      5-min Rain = 0
KWE1 191253Z 16006KT 04/02 A2996 RMK A01 T00400016  RH  085%=      5-min Rain = 0
KWE1 191254Z 16006KT 04/02 A2996 RMK A01 T00400017  RH  085%=      5-min Rain = 0
KWE1 191255Z 16006KT 04/02 A2996 RMK A01 T00410018  RH  085%=      5-min Rain = 0
KWE1 191256Z 16005KT 04/02 A2996 RMK A01 T00420020  RH  086%=      5-min Rain = 0
KWE1 191257Z 15005KT 04/02 A2996 RMK A01 T00430020  RH  085%=      5-min Rain = 0
KWE1 191258Z 15004KT 04/02 A2996 RMK A01 T00440021  RH  085%=      5-min Rain = 0
KWE1 191259Z 15005KT 05/02 A2996 RMK A01 T00450022  RH  085%=      5-min Rain = 0
KWE1 191300Z 16005KT 05/02 A2996 RMK A01 T00460022  RH  085%=      5-min Rain = 0
KWE1 191301Z 16006KT 05/02 A2996 RMK A01 T00460022  RH  084%=      5-min Rain = 0
KWE1 191302Z 16006KT 05/02 A2996 RMK A01 T00470022  RH  084%=      5-min Rain = 0
KWE1 191303Z 16006KT 05/02 A2996 RMK A01 T00470023  RH  084%=      5-min Rain = 0
KWE1 191304Z 16006KT 05/02 A2996 RMK A01 T00480024  RH  084%=      5-min Rain = 0
KWE1 191305Z 16006KT 05/02 A2996 RMK A01 T00490024  RH  084%=      5-min Rain = 0
KWE1 191306Z 16005KT 05/02 A2996 RMK A01 T00490024  RH  084%=      5-min Rain = 0
KWE1 191307Z 16006KT 05/02 A2996 RMK A01 T00500024  RH  083%=      5-min Rain = 0
KWE1 191308Z 17005KT 05/02 A2996 RMK A01 T00500024  RH  083%=      5-min Rain = 0
KWE1 191309Z 16004KT 05/02 A2996 RMK A01 T00500023  RH  083%=      5-min Rain = 0
KWE1 191310Z 16004KT 05/02 A2996 RMK A01 T00500023  RH  083%=      5-min Rain = 0
KWE1 191311Z 16004KT 05/02 A2996 RMK A01 T00490023  RH  083%=      5-min Rain = 0
KWE1 191312Z 16004KT 05/02 A2996 RMK A01 T00490023  RH  083%=      5-min Rain = 0
KWE1 191313Z 17004KT 05/02 A2996 RMK A01 T00490023  RH  083%=      5-min Rain = 0
KWE1 191314Z 17003KT 05/02 A2996 RMK A01 T00490023  RH  083%=      5-min Rain = 0
KWE1 191315Z 18003KT 05/02 A2996 RMK A01 T00500024  RH  083%=      5-min Rain = 0
KWE1 191316Z 18003KT 05/02 A2996 RMK A01 T00500023  RH  083%=      5-min Rain = 0
KWE1 191317Z 19003KT 05/02 A2996 RMK A01 T00500023  RH  083%=      5-min Rain = 0
KWE1 191318Z 19004KT 05/02 A2996 RMK A01 T00500023  RH  083%=      5-min Rain = 0
KWE1 191319Z 19003KT 05/02 A2996 RMK A01 T00500024  RH  083%=      5-min Rain = 0
KWE1 191320Z 19003KT 05/03 A2996 RMK A01 T00510025  RH  083%=      5-min Rain = 0
KWE1 191321Z 20003KT 05/03 A2996 RMK A01 T00510025  RH  083%=      5-min Rain = 0
KWE1 191322Z 20003KT 05/03 A2996 RMK A01 T00520025  RH  083%=      5-min Rain = 0
KWE1 191323Z 20003KT 05/03 A2996 RMK A01 T00520025  RH  083%=      5-min Rain = 0
KWE1 191324Z 20003KT 05/03 A2996 RMK A01 T00520025  RH  083%=      5-min Rain = 0
KWE1 191325Z 20004KT 05/03 A2996 RMK A01 T00520025  RH  083%=      5-min Rain = 0
KWE1 191326Z 20005KT 05/03 A2997 RMK A01 T00520025  RH  083%=      5-min Rain = 0
KWE1 191327Z 20005KT 05/03 A2997 RMK A01 T00520026  RH  083%=      5-min Rain = 0
KWE1 191328Z 20004KT 05/03 A2997 RMK A01 T00520026  RH  083%=      5-min Rain = 0
KWE1 191329Z 20005KT 05/03 A2997 RMK A01 T00520026  RH  083%=      5-min Rain = 0
KWE1 191330Z 19005KT 05/03 A2997 RMK A01 T00530027  RH  083%=      5-min Rain = 0
KWE1 191331Z 19005KT 05/03 A2997 RMK A01 T00530026  RH  083%=      5-min Rain = 0
KWE1 191332Z 19005KT 05/03 A2997 RMK A01 T00540027  RH  083%=      5-min Rain = 0
KWE1 191333Z 19005KT 05/03 A2997 RMK A01 T00540027  RH  082%=      5-min Rain = 0
KWE1 191334Z 19005KT 06/03 A2997 RMK A01 T00550027  RH  082%=      5-min Rain = 0
KWE1 191335Z 19005KT 06/03 A2997 RMK A01 T00550027  RH  082%=      5-min Rain = 0
KWE1 191336Z 19005KT 06/03 A2997 RMK A01 T00560027  RH  082%=      5-min Rain = 0
KWE1 191337Z 19005KT 06/03 A2997 RMK A01 T00570028  RH  082%=      5-min Rain = 0
KWE1 191338Z 19005KT 06/03 A2997 RMK A01 T00580029  RH  081%=      5-min Rain = 0
KWE1 191339Z 19005KT 06/03 A2997 RMK A01 T00590029  RH  081%=      5-min Rain = 0
KWE1 191340Z 20004KT 06/03 A2997 RMK A01 T00600029  RH  081%=      5-min Rain = 0
KWE1 191341Z 20003KT 06/03 A2997 RMK A01 T00610030  RH  081%=      5-min Rain = 0
KWE1 191342Z 20003KT 06/03 A2997 RMK A01 T00620030  RH  080%=      5-min Rain = 0
KWE1 191343Z 20002KT 06/03 A2997 RMK A01 T00630031  RH  080%=      5-min Rain = 0
KWE1 191344Z 21002KT 06/03 A2997 RMK A01 T00640031  RH  080%=      5-min Rain = 0
KWE1 191345Z 20002KT 06/03 A2997 RMK A01 T00640031  RH  079%=      5-min Rain = 0
KWE1 191346Z 21003KT 07/03 A2997 RMK A01 T00650031  RH  079%=      5-min Rain = 0
KWE1 191347Z 20004KT 07/03 A2997 RMK A01 T00650030  RH  079%=      5-min Rain = 0
KWE1 191348Z 20005KT 07/03 A2997 RMK A01 T00660031  RH  078%=      5-min Rain = 0
KWE1 191349Z 20005KT 07/03 A2997 RMK A01 T00670031  RH  078%=      5-min Rain = 0
KWE1 191350Z 21005KT 07/03 A2997 RMK A01 T00680032  RH  078%=      5-min Rain = 0
KWE1 191351Z 21004KT 07/03 A2997 RMK A01 T00700033  RH  077%=      5-min Rain = 0
KWE1 191352Z 21004KT 07/03 A2997 RMK A01 T00710033  RH  077%=      5-min Rain = 0
KWE1 191353Z 21004KT 07/03 A2997 RMK A01 T00720033  RH  076%=      5-min Rain = 0
KWE1 191354Z 21005KT 07/03 A2997 RMK A01 T00720033  RH  076%=      5-min Rain = 0
KWE1 191355Z 21005KT 07/03 A2997 RMK A01 T00730034  RH  076%=      5-min Rain = 0
KWE1 191356Z 21005KT 07/03 A2997 RMK A01 T00740034  RH  076%=      5-min Rain = 0
KWE1 191357Z 21006KT 08/03 A2997 RMK A01 T00750034  RH  076%=      5-min Rain = 0
KWE1 191358Z 20006KT 08/04 A2997 RMK A01 T00760035  RH  075%=      5-min Rain = 0
KWE1 191359Z 21006KT 08/04 A2997 RMK A01 T00760035  RH  075%=      5-min Rain = 0
KWE1 191400Z 21006KT 08/04 A2997 RMK A01 T00780036  RH  075%=      5-min Rain = 0
KWE1 191401Z 21006KT 08/04 A2997 RMK A01 T00790037  RH  074%=      5-min Rain = 0
KWE1 191402Z 21006KT 08/04 A2997 RMK A01 T00810037  RH  074%=      5-min Rain = 0
KWE1 191403Z 21005KT 08/04 A2997 RMK A01 T00820037  RH  074%=      5-min Rain = 0
KWE1 191404Z 21005KT 08/04 A2997 RMK A01 T00830038  RH  073%=      5-min Rain = 0
KWE1 191405Z 20005KT 08/04 A2997 RMK A01 T00830037  RH  073%=      5-min Rain = 0
KWE1 191406Z 21006KT 08/04 A2997 RMK A01 T00830037  RH  073%=      5-min Rain = 0
KWE1 191407Z 21006KT 08/04 A2997 RMK A01 T00840037  RH  072%=      5-min Rain = 0
KWE1 191408Z 21006KT 08/04 A2997 RMK A01 T00840036  RH  072%=      5-min Rain = 0
KWE1 191409Z 21006KT 08/04 A2997 RMK A01 T00840037  RH  072%=      5-min Rain = 0
KWE1 191410Z 21005KT 08/04 A2997 RMK A01 T00840038  RH  073%=      5-min Rain = 0
KWE1 191411Z 20005KT 08/04 A2997 RMK A01 T00840038  RH  073%=      5-min Rain = 0
KWE1 191412Z 21006KT 09/04 A2997 RMK A01 T00850038  RH  073%=      5-min Rain = 0
KWE1 191413Z 21006KT 09/04 A2997 RMK A01 T00850038  RH  072%=      5-min Rain = 0
KWE1 191414Z 21006KT 09/04 A2997 RMK A01 T00860038  RH  072%=      5-min Rain = 0
KWE1 191415Z 21006KT 09/04 A2997 RMK A01 T00870039  RH  072%=      5-min Rain = 0
KWE1 191416Z 21006KT 09/04 A2997 RMK A01 T00880039  RH  072%=      5-min Rain = 0
KWE1 191417Z 21006KT 09/04 A2997 RMK A01 T00880039  RH  071%=      5-min Rain = 0
KWE1 191418Z 21005KT 09/04 A2997 RMK A01 T00890040  RH  071%=      5-min Rain = 0
KWE1 191419Z 21005KT 09/04 A2998 RMK A01 T00900039  RH  071%=      5-min Rain = 0
KWE1 191420Z 21006KT 09/04 A2998 RMK A01 T00910040  RH  070%=      5-min Rain = 0
KWE1 191421Z 21006KT 09/04 A2998 RMK A01 T00910040  RH  070%=      5-min Rain = 0
KWE1 191422Z 21005KT 09/04 A2998 RMK A01 T00920039  RH  070%=      5-min Rain = 0
KWE1 191423Z 21005KT 09/04 A2998 RMK A01 T00920039  RH  070%=      5-min Rain = 0
KWE1 191424Z 21005KT 09/04 A2998 RMK A01 T00930040  RH  069%=      5-min Rain = 0
KWE1 191425Z 21004KT 09/04 A2997 RMK A01 T00940041  RH  069%=      5-min Rain = 0
KWE1 191426Z 21004KT 10/04 A2997 RMK A01 T00950041  RH  069%=      5-min Rain = 0
KWE1 191427Z 21004KT 10/04 A2997 RMK A01 T00960042  RH  069%=      5-min Rain = 0
KWE1 191428Z 20004KT 10/04 A2997 RMK A01 T00970041  RH  068%=      5-min Rain = 0
KWE1 191429Z 21004KT 10/04 A2997 RMK A01 T00980041  RH  068%=      5-min Rain = 0
KWE1 191430Z 21003KT 10/04 A2997 RMK A01 T00990041  RH  067%=      5-min Rain = 0
KWE1 191431Z 21003KT 10/04 A2997 RMK A01 T01000042  RH  067%=      5-min Rain = 0
KWE1 191432Z 21004KT 10/04 A2997 RMK A01 T01010041  RH  066%=      5-min Rain = 0
KWE1 191433Z 21004KT 10/04 A2997 RMK A01 T01020042  RH  066%=      5-min Rain = 0
KWE1 191434Z 20004KT 10/04 A2997 RMK A01 T01030043  RH  066%=      5-min Rain = 0
KWE1 191435Z 21004KT 10/04 A2997 RMK A01 T01040044  RH  066%=      5-min Rain = 0
KWE1 191436Z 20003KT 11/04 A2997 RMK A01 T01060044  RH  066%=      5-min Rain = 0
KWE1 191437Z 20004KT 11/04 A2997 RMK A01 T01070044  RH  065%=      5-min Rain = 0
KWE1 191438Z 21003KT 11/04 A2997 RMK A01 T01080043  RH  064%=      5-min Rain = 0
KWE1 191439Z 20003KT 11/05 A2997 RMK A01 T01100045  RH  064%=      5-min Rain = 0
KWE1 191440Z 20003KT 11/05 A2997 RMK A01 T01120046  RH  064%=      5-min Rain = 0
KWE1 191441Z 19003KT 11/05 A2997 RMK A01 T01130046  RH  063%=      5-min Rain = 0
KWE1 191442Z 20003KT 12/05 A2997 RMK A01 T01150048  RH  063%=      5-min Rain = 0
KWE1 191443Z 20003KT 12/05 A2997 RMK A01 T01160046  RH  062%=      5-min Rain = 0
KWE1 191444Z 20003KT 12/05 A2997 RMK A01 T01170045  RH  061%=      5-min Rain = 0
KWE1 191445Z 20003KT 12/05 A2997 RMK A01 T01180047  RH  062%=      5-min Rain = 0
KWE1 191446Z 20003KT 12/05 A2997 RMK A01 T01190046  RH  061%=      5-min Rain = 0
KWE1 191447Z 21003KT 12/05 A2997 RMK A01 T01200046  RH  060%=      5-min Rain = 0
KWE1 191448Z 21002KT 12/05 A2997 RMK A01 T01210048  RH  061%=      5-min Rain = 0
KWE1 191449Z 21003KT 12/05 A2997 RMK A01 T01230049  RH  061%=      5-min Rain = 0
KWE1 191450Z 21004KT 12/05 A2997 RMK A01 T01230047  RH  060%=      5-min Rain = 0
KWE1 191451Z 21004KT 12/05 A2997 RMK A01 T01230047  RH  060%=      5-min Rain = 0
KWE1 191452Z 21004KT 12/05 A2997 RMK A01 T01230047  RH  060%=      5-min Rain = 0
KWE1 191453Z 21005KT 12/05 A2997 RMK A01 T01220046  RH  060%=      5-min Rain = 0
KWE1 191454Z 21004KT 12/05 A2997 RMK A01 T01230047  RH  060%=      5-min Rain = 0
KWE1 191455Z 21004KT 12/05 A2997 RMK A01 T01230047  RH  060%=      5-min Rain = 0
KWE1 191456Z 20004KT 12/05 A2997 RMK A01 T01240047  RH  059%=      5-min Rain = 0
KWE1 191457Z 21004KT 13/05 A2997 RMK A01 T01250048  RH  059%=      5-min Rain = 0
KWE1 191458Z 21005KT 13/05 A2997 RMK A01 T01250047  RH  059%=      5-min Rain = 0
KWE1 191459Z 21004KT 13/05 A2997 RMK A01 T01250046  RH  059%=      5-min Rain = 0
KWE1 191500Z 21004KT 13/05 A2997 RMK A01 T01250048  RH  059%=      5-min Rain = 0
KWE1 191501Z 21005KT 13/05 A2997 RMK A01 T01270050  RH  060%=      5-min Rain = 0
KWE1 191502Z 20004KT 13/05 A2997 RMK A01 T01280051  RH  060%=      5-min Rain = 0
KWE1 191503Z 20005KT 13/05 A2997 RMK A01 T01300053  RH  059%=      5-min Rain = 0
KWE1 191504Z 21004KT 13/05 A2997 RMK A01 T01320051  RH  058%=      5-min Rain = 0
KWE1 191505Z 21006KT 13/05 A2997 RMK A01 T01330050  RH  057%=      5-min Rain = 0
KWE1 191506Z 21005KT 13/05 A2997 RMK A01 T01330049  RH  057%=      5-min Rain = 0
KWE1 191507Z 21004KT 13/05 A2997 RMK A01 T01330050  RH  057%=      5-min Rain = 0
KWE1 191508Z 22003KT 14/05 A2997 RMK A01 T01360053  RH  057%=      5-min Rain = 0
KWE1 191509Z 21003KT 14/05 A2997 RMK A01 T01380054  RH  057%=      5-min Rain = 0
KWE1 191510Z 21004KT 14/05 A2997 RMK A01 T01390053  RH  056%=      5-min Rain = 0
KWE1 191511Z 21005KT 14/05 A2997 RMK A01 T01400051  RH  055%=      5-min Rain = 0
KWE1 191512Z 21004KT 14/05 A2997 RMK A01 T01410051  RH  055%=      5-min Rain = 0
KWE1 191513Z 21004KT 14/05 A2997 RMK A01 T01420053  RH  055%=      5-min Rain = 0
KWE1 191514Z 21005KT 14/05 A2997 RMK A01 T01430052  RH  054%=      5-min Rain = 0
KWE1 191515Z 22005KT 14/05 A2997 RMK A01 T01440052  RH  054%=      5-min Rain = 0
KWE1 191516Z 21005KT 14/05 A2997 RMK A01 T01440051  RH  053%=      5-min Rain = 0
KWE1 191517Z 21005KT 15/05 A2997 RMK A01 T01450051  RH  053%=      5-min Rain = 0
KWE1 191518Z 21005KT 15/05 A2997 RMK A01 T01460052  RH  053%=      5-min Rain = 0
KWE1 191519Z 21005KT 15/05 A2998 RMK A01 T01480051  RH  053%=      5-min Rain = 0
KWE1 191520Z 21005KT 15/05 A2998 RMK A01 T01480053  RH  053%=      5-min Rain = 0
KWE1 191521Z 21005KT 15/05 A2998 RMK A01 T01500052  RH  052%=      5-min Rain = 0
KWE1 191522Z 21005KT 15/05 A2998 RMK A01 T01500051  RH  051%=      5-min Rain = 0
KWE1 191523Z 20005KT 15/05 A2998 RMK A01 T01500052  RH  052%=      5-min Rain = 0
KWE1 191524Z 20005KT 15/05 A2998 RMK A01 T01520051  RH  051%=      5-min Rain = 0
KWE1 191525Z 21004KT 15/05 A2998 RMK A01 T01530054  RH  052%=      5-min Rain = 0
KWE1 191526Z 20005KT 16/05 A2998 RMK A01 T01550052  RH  050%=      5-min Rain = 0
KWE1 191527Z 20005KT 16/05 A2998 RMK A01 T01550050  RH  050%=      5-min Rain = 0
KWE1 191528Z 20005KT 16/05 A2998 RMK A01 T01560050  RH  049%=      5-min Rain = 0
KWE1 191529Z 19004KT 16/05 A2998 RMK A01 T01570052  RH  050%=      5-min Rain = 0
KWE1 191530Z 19004KT 16/05 A2998 RMK A01 T01580053  RH  049%=      5-min Rain = 0
KWE1 191531Z 19004KT 16/05 A2997 RMK A01 T01600054  RH  049%=      5-min Rain = 0
KWE1 191532Z 19003KT 16/05 A2997 RMK A01 T01610053  RH  049%=      5-min Rain = 0
KWE1 191533Z 18003KT 16/05 A2997 RMK A01 T01630054  RH  049%=      5-min Rain = 0
KWE1 191534Z 18004KT 17/06 A2997 RMK A01 T01650055  RH  048%=      5-min Rain = 0
KWE1 191535Z 18004KT 17/05 A2997 RMK A01 T01660054  RH  048%=      5-min Rain = 0
KWE1 191536Z 19004KT 17/05 A2997 RMK A01 T01660054  RH  047%=      5-min Rain = 0
KWE1 191537Z 19003KT 17/05 A2997 RMK A01 T01670054  RH  047%=      5-min Rain = 0
KWE1 191538Z 19004KT 17/06 A2997 RMK A01 T01690057  RH  047%=      5-min Rain = 0
KWE1 191539Z 19003KT 17/05 A2997 RMK A01 T01710054  RH  046%=      5-min Rain = 0
KWE1 191540Z 19003KT 17/06 A2997 RMK A01 T01720057  RH  047%=      5-min Rain = 0
KWE1 191541Z 19003KT 17/06 A2997 RMK A01 T01730056  RH  046%=      5-min Rain = 0
KWE1 191542Z 19004KT 17/06 A2997 RMK A01 T01740057  RH  046%=      5-min Rain = 0
KWE1 191543Z 18004KT 18/06 A2997 RMK A01 T01750056  RH  046%=      5-min Rain = 0
KWE1 191544Z 18004KT 18/06 A2997 RMK A01 T01770061  RH  047%=      5-min Rain = 0
KWE1 191545Z 18005KT 18/06 A2997 RMK A01 T01790059  RH  045%=      5-min Rain = 0
KWE1 191546Z 19003KT 18/06 A2997 RMK A01 T01800058  RH  045%=      5-min Rain = 0
KWE1 191547Z 20004KT 18/06 A2997 RMK A01 T01810057  RH  044%=      5-min Rain = 0
KWE1 191548Z 21005KT 18/06 A2997 RMK A01 T01820056  RH  044%=      5-min Rain = 0
KWE1 191549Z 20005KT 18/06 A2997 RMK A01 T01830057  RH  043%=      5-min Rain = 0
KWE1 191550Z 20004KT 19/06 A2997 RMK A01 T01850057  RH  043%=      5-min Rain = 0
KWE1 191551Z 21007KT 19/05 A2997 RMK A01 T01860051  RH  041%=      5-min Rain = 0
KWE1 191552Z 21007KT 19/05 A2997 RMK A01 T01850046  RH  040%=      5-min Rain = 0
KWE1 191553Z 19008KT 18/05 A2997 RMK A01 T01830045  RH  040%=      5-min Rain = 0
KWE1 191554Z 20008KT 18/05 A2997 RMK A01 T01830046  RH  040%=      5-min Rain = 0
KWE1 191555Z 20007KT 18/05 A2997 RMK A01 T01820047  RH  041%=      5-min Rain = 0
KWE1 191556Z 20006KT 18/05 A2997 RMK A01 T01830050  RH  041%=      5-min Rain = 0
KWE1 191557Z 20005KT 19/05 A2997 RMK A01 T01850052  RH  041%=      5-min Rain = 0
KWE1 191558Z 19005KT 19/05 A2997 RMK A01 T01870054  RH  042%=      5-min Rain = 0
KWE1 191559Z 20006KT 19/05 A2997 RMK A01 T01880054  RH  041%=      5-min Rain = 0
KWE1 191600Z 21007KT 19/05 A2997 RMK A01 T01890049  RH  040%=      5-min Rain = 0
KWE1 191601Z 21007KT 19/05 A2997 RMK A01 T01890046  RH  039%=      5-min Rain = 0
KWE1 191602Z 21007KT 19/05 A2997 RMK A01 T01880047  RH  039%=      5-min Rain = 0
KWE1 191603Z 21006KT 19/05 A2997 RMK A01 T01880046  RH  039%=      5-min Rain = 0
KWE1 191604Z 21007KT 19/05 A2997 RMK A01 T01880045  RH  039%=      5-min Rain = 0
KWE1 191605Z 20006KT 19/05 A2997 RMK A01 T01880049  RH  040%=      5-min Rain = 0
KWE1 191606Z 20006KT 19/05 A2997 RMK A01 T01890051  RH  040%=      5-min Rain = 0
KWE1 191607Z 22007KT 19/05 A2997 RMK A01 T01910051  RH  040%=      5-min Rain = 0
KWE1 191608Z 22008KT 19/05 A2997 RMK A01 T01910049  RH  039%=      5-min Rain = 0
KWE1 191609Z 23007KT 19/05 A2997 RMK A01 T01910049  RH  039%=      5-min Rain = 0
KWE1 191610Z 21006KT 19/05 A2997 RMK A01 T01910050  RH  040%=      5-min Rain = 0
KWE1 191611Z 21008KT 19/05 A2997 RMK A01 T01910050  RH  040%=      5-min Rain = 0
KWE1 191612Z 21008KT 19/05 A2997 RMK A01 T01900049  RH  039%=      5-min Rain = 0
KWE1 191613Z 22006KT 19/05 A2997 RMK A01 T01900049  RH  040%=      5-min Rain = 0
KWE1 191614Z 21007KT 19/05 A2997 RMK A01 T01890050  RH  040%=      5-min Rain = 0
KWE1 191615Z 21008KT 19/05 A2997 RMK A01 T01900052  RH  040%=      5-min Rain = 0
KWE1 191616Z 22007KT 19/05 A2997 RMK A01 T01900051  RH  040%=      5-min Rain = 0
KWE1 191617Z 20007KT 19/05 A2997 RMK A01 T01890053  RH  041%=      5-min Rain = 0
KWE1 191618Z 21006KT 19/05 A2997 RMK A01 T01910054  RH  041%=      5-min Rain = 0
KWE1 191619Z 22006KT 19/06 A2997 RMK A01 T01930056  RH  041%=      5-min Rain = 0
KWE1 191620Z 21005KT 20/06 A2997 RMK A01 T01950057  RH  040%=      5-min Rain = 0
KWE1 191621Z 20006KT 20/06 A2997 RMK A01 T01960057  RH  040%=      5-min Rain = 0
KWE1 191622Z 19006KT 20/06 A2997 RMK A01 T01960056  RH  040%=      5-min Rain = 0
KWE1 191623Z 21005KT 20/06 A2997 RMK A01 T01960059  RH  041%=      5-min Rain = 0
KWE1 191624Z 21007KT 20/06 A2997 RMK A01 T01970058  RH  040%=      5-min Rain = 0
KWE1 191625Z 20008KT 20/06 A2997 RMK A01 T01970057  RH  040%=      5-min Rain = 0
KWE1 191626Z 20006KT 20/06 A2997 RMK A01 T01970056  RH  040%=      5-min Rain = 0
KWE1 191627Z 21007KT 20/06 A2997 RMK A01 T01960056  RH  040%=      5-min Rain = 0
KWE1 191628Z 22007KT 20/06 A2997 RMK A01 T01960055  RH  040%=      5-min Rain = 0
KWE1 191629Z 21007KT 20/05 A2997 RMK A01 T01950054  RH  040%=      5-min Rain = 0
KWE1 191630Z 21007KT 20/05 A2997 RMK A01 T01950054  RH  040%=      5-min Rain = 0
KWE1 191631Z 20008KT 20/05 A2997 RMK A01 T01960054  RH  039%=      5-min Rain = 0
KWE1 191632Z 21007KT 20/05 A2997 RMK A01 T01960054  RH  039%=      5-min Rain = 0
KWE1 191633Z 22008KT 20/05 A2997 RMK A01 T01970054  RH  039%=      5-min Rain = 0
KWE1 191634Z 21007KT 20/05 A2997 RMK A01 T01970053  RH  039%=      5-min Rain = 0
KWE1 191635Z 20005KT 20/05 A2997 RMK A01 T01960053  RH  039%=      5-min Rain = 0
KWE1 191636Z 21008KT 20/06 A2997 RMK A01 T01970055  RH  039%=      5-min Rain = 0
KWE1 191637Z 21006KT 20/06 A2997 RMK A01 T01980055  RH  039%=      5-min Rain = 0
KWE1 191638Z 21005KT 20/06 A2997 RMK A01 T02000057  RH  039%=      5-min Rain = 0
KWE1 191639Z 21008KT 20/06 A2997 RMK A01 T02020057  RH  039%=      5-min Rain = 0
KWE1 191640Z 20007KT 20/06 A2997 RMK A01 T02030056  RH  038%=      5-min Rain = 0
KWE1 191641Z 21008KT 20/06 A2997 RMK A01 T02030056  RH  038%=      5-min Rain = 0
KWE1 191642Z 21010KT 20/06 A2997 RMK A01 T02030055  RH  038%=      5-min Rain = 0
KWE1 191643Z 21008KT 20/06 A2997 RMK A01 T02020055  RH  038%=      5-min Rain = 0
KWE1 191644Z 21008KT 20/06 A2997 RMK A01 T02020055  RH  038%=      5-min Rain = 0
KWE1 191645Z 21006KT 20/06 A2997 RMK A01 T02020055  RH  038%=      5-min Rain = 0
KWE1 191646Z 22007KT 20/06 A2997 RMK A01 T02030056  RH  038%=      5-min Rain = 0
KWE1 191647Z 22008KT 20/06 A2996 RMK A01 T02030055  RH  038%=      5-min Rain = 0
KWE1 191648Z 21007KT 20/06 A2996 RMK A01 T02040056  RH  038%=      5-min Rain = 0
KWE1 191649Z 22008KT 20/06 A2996 RMK A01 T02040058  RH  039%=      5-min Rain = 0
KWE1 191650Z 22008KT 21/06 A2996 RMK A01 T02050057  RH  038%=      5-min Rain = 0
KWE1 191651Z 22008KT 21/06 A2996 RMK A01 T02050056  RH  038%=      5-min Rain = 0
KWE1 191652Z 21009KT 21/06 A2996 RMK A01 T02050057  RH  038%=      5-min Rain = 0
KWE1 191653Z 21008KT 21/06 A2996 RMK A01 T02060057  RH  038%=      5-min Rain = 0
KWE1 191654Z 21006KT 21/06 A2996 RMK A01 T02060057  RH  038%=      5-min Rain = 0
KWE1 191655Z 21006KT 21/06 A2996 RMK A01 T02050057  RH  038%=      5-min Rain = 0
KWE1 191656Z 21008KT 21/06 A2996 RMK A01 T02050058  RH  038%=      5-min Rain = 0
KWE1 191657Z 22007KT 21/06 A2996 RMK A01 T02050057  RH  038%=      5-min Rain = 0
KWE1 191658Z 23008KT 21/06 A2996 RMK A01 T02060060  RH  038%=      5-min Rain = 0
KWE1 191659Z 22009KT 21/06 A2996 RMK A01 T02080060  RH  038%=      5-min Rain = 0
KWE1 191700Z 21008KT 21/06 A2996 RMK A01 T02090059  RH  038%=      5-min Rain = 0
KWE1 191701Z 19007KT 21/06 A2996 RMK A01 T02090059  RH  038%=      5-min Rain = 0
KWE1 191702Z 22007KT 21/06 A2996 RMK A01 T02100060  RH  038%=      5-min Rain = 0
KWE1 191703Z 22007KT 21/06 A2996 RMK A01 T02100060  RH  038%=      5-min Rain = 0
KWE1 191704Z 21007KT 21/06 A2996 RMK A01 T02110061  RH  038%=      5-min Rain = 0
KWE1 191705Z 22007KT 21/06 A2996 RMK A01 T02120062  RH  038%=      5-min Rain = 0
KWE1 191706Z 21011KT 21/06 A2996 RMK A01 T02130060  RH  037%=      5-min Rain = 0
KWE1 191707Z 22008KT 21/06 A2996 RMK A01 T02110059  RH  037%=      5-min Rain = 0
KWE1 191708Z 23009KT 21/06 A2996 RMK A01 T02110062  RH  038%=      5-min Rain = 0
KWE1 191709Z 21008KT 21/06 A2996 RMK A01 T02120061  RH  037%=      5-min Rain = 0
KWE1 191710Z 21010KT 21/06 A2996 RMK A01 T02130062  RH  038%=      5-min Rain = 0
KWE1 191711Z 22010KT 21/06 A2996 RMK A01 T02120061  RH  037%=      5-min Rain = 0
KWE1 191712Z 22009KT 21/06 A2996 RMK A01 T02100060  RH  038%=      5-min Rain = 0
KWE1 191713Z 22009KT 21/06 A2996 RMK A01 T02090060  RH  038%=      5-min Rain = 0
KWE1 191714Z 23010KT 21/06 A2995 RMK A01 T02090061  RH  038%=      5-min Rain = 0
KWE1 191715Z 23008KT 21/06 A2995 RMK A01 T02090061  RH  038%=      5-min Rain = 0
KWE1 191716Z 23008KT 21/06 A2995 RMK A01 T02090061  RH  038%=      5-min Rain = 0
KWE1 191717Z 22008KT 21/06 A2995 RMK A01 T02090060  RH  038%=      5-min Rain = 0
KWE1 191718Z 21010KT 21/06 A2995 RMK A01 T02090061  RH  038%=      5-min Rain = 0
KWE1 191719Z 21008KT 21/06 A2995 RMK A01 T02090061  RH  038%=      5-min Rain = 0
KWE1 191720Z 22010KT 21/06 A2995 RMK A01 T02100063  RH  038%=      5-min Rain = 0
KWE1 191721Z 21011KT 21/06 A2995 RMK A01 T02120063  RH  038%=      5-min Rain = 0
KWE1 191722Z 21011KT 21/06 A2995 RMK A01 T02130063  RH  038%=      5-min Rain = 0
KWE1 191723Z 22009KT 21/06 A2995 RMK A01 T02120061  RH  037%=      5-min Rain = 0
KWE1 191724Z 23009KT 21/06 A2995 RMK A01 T02100061  RH  038%=      5-min Rain = 0
KWE1 191725Z 22009KT 21/06 A2995 RMK A01 T02100063  RH  038%=      5-min Rain = 0
KWE1 191726Z 21008KT 21/07 A2995 RMK A01 T02120065  RH  038%=      5-min Rain = 0
KWE1 191727Z 21007KT 22/06 A2995 RMK A01 T02150064  RH  037%=      5-min Rain = 0
KWE1 191728Z 20011KT 22/06 A2995 RMK A01 T02160064  RH  037%=      5-min Rain = 0
KWE1 191729Z 20010KT 22/06 A2995 RMK A01 T02170062  RH  037%=      5-min Rain = 0
KWE1 191730Z 21010KT 21/06 A2995 RMK A01 T02140061  RH  037%=      5-min Rain = 0
KWE1 191731Z 20008KT 21/06 A2995 RMK A01 T02120061  RH  037%=      5-min Rain = 0
KWE1 191732Z 20007KT 21/06 A2995 RMK A01 T02120062  RH  038%=      5-min Rain = 0
KWE1 191733Z 19008KT 22/06 A2994 RMK A01 T02150064  RH  037%=      5-min Rain = 0
KWE1 191734Z 21009KT 22/07 A2994 RMK A01 T02170065  RH  037%=      5-min Rain = 0
KWE1 191735Z 21009KT 22/07 A2994 RMK A01 T02190065  RH  037%=      5-min Rain = 0
KWE1 191736Z 22009KT 22/06 A2994 RMK A01 T02200063  RH  036%=      5-min Rain = 0
KWE1 191737Z 23008KT 22/07 A2994 RMK A01 T02200065  RH  037%=      5-min Rain = 0
KWE1 191738Z 20009KT 22/07 A2994 RMK A01 T02220065  RH  036%=      5-min Rain = 0
KWE1 191739Z 20008KT 22/07 A2994 RMK A01 T02230065  RH  036%=      5-min Rain = 0
KWE1 191740Z 20009KT 23/07 A2994 RMK A01 T02250065  RH  036%=      5-min Rain = 0
KWE1 191741Z 21009KT 23/06 A2994 RMK A01 T02250064  RH  035%=      5-min Rain = 0
KWE1 191742Z 22008KT 22/06 A2994 RMK A01 T02230064  RH  036%=      5-min Rain = 0
KWE1 191743Z 21009KT 22/06 A2994 RMK A01 T02220064  RH  036%=      5-min Rain = 0
KWE1 191744Z 20010KT 22/06 A2994 RMK A01 T02220063  RH  036%=      5-min Rain = 0
KWE1 191745Z 21009KT 22/06 A2994 RMK A01 T02210063  RH  036%=      5-min Rain = 0
KWE1 191746Z 22008KT 22/06 A2994 RMK A01 T02210063  RH  036%=      5-min Rain = 0
KWE1 191747Z 22008KT 22/07 A2994 RMK A01 T02210066  RH  037%=      5-min Rain = 0
KWE1 191748Z 21008KT 22/07 A2994 RMK A01 T02240065  RH  036%=      5-min Rain = 0
KWE1 191749Z 22010KT 23/07 A2994 RMK A01 T02260065  RH  035%=      5-min Rain = 0
KWE1 191750Z 21008KT 23/06 A2994 RMK A01 T02250064  RH  035%=      5-min Rain = 0
KWE1 191751Z 22006KT 23/07 A2994 RMK A01 T02250066  RH  036%=      5-min Rain = 0
KWE1 191752Z 20009KT 23/07 A2994 RMK A01 T02260066  RH  035%=      5-min Rain = 0
KWE1 191753Z 19010KT 23/07 A2994 RMK A01 T02270065  RH  035%=      5-min Rain = 0
KWE1 191754Z 20010KT 23/07 A2994 RMK A01 T02260065  RH  035%=      5-min Rain = 0
KWE1 191755Z 20009KT 23/06 A2994 RMK A01 T02250064  RH  035%=      5-min Rain = 0
KWE1 191756Z 21009KT 22/06 A2994 RMK A01 T02240064  RH  035%=      5-min Rain = 0
KWE1 191757Z 22009KT 22/06 A2994 RMK A01 T02240064  RH  036%=      5-min Rain = 0
KWE1 191758Z 20007KT 22/06 A2994 RMK A01 T02240064  RH  036%=      5-min Rain = 0
KWE1 191759Z 22006KT 22/07 A2994 RMK A01 T02240065  RH  036%=      5-min Rain = 0
KWE1 191800Z 20006KT 23/07 A2994 RMK A01 T02260066  RH  036%=      5-min Rain = 0
KWE1 191801Z 20006KT 23/07 A2994 RMK A01 T02290068  RH  035%=      5-min Rain = 0
KWE1 191802Z 22010KT 23/07 A2994 RMK A01 T02310068  RH  035%=      5-min Rain = 0
KWE1 191803Z 21007KT 23/07 A2994 RMK A01 T02310066  RH  034%=      5-min Rain = 0
KWE1 191804Z 21010KT 23/07 A2994 RMK A01 T02300067  RH  035%=      5-min Rain = 0
KWE1 191805Z 21008KT 23/07 A2994 RMK A01 T02300065  RH  034%=      5-min Rain = 0
KWE1 191806Z 19008KT 23/07 A2993 RMK A01 T02290066  RH  035%=      5-min Rain = 0
KWE1 191807Z 20009KT 23/07 A2993 RMK A01 T02300067  RH  035%=      5-min Rain = 0
KWE1 191808Z 21009KT 23/07 A2993 RMK A01 T02300065  RH  034%=      5-min Rain = 0
KWE1 191809Z 21008KT 23/07 A2993 RMK A01 T02270065  RH  035%=      5-min Rain = 0
KWE1 191810Z 20010KT 23/07 A2993 RMK A01 T02280066  RH  035%=      5-min Rain = 0
KWE1 191811Z 20008KT 23/07 A2993 RMK A01 T02310067  RH  035%=      5-min Rain = 0
KWE1 191812Z 19007KT 23/07 A2993 RMK A01 T02300066  RH  035%=      5-min Rain = 0
KWE1 191813Z 20009KT 23/07 A2993 RMK A01 T02310068  RH  035%=      5-min Rain = 0
KWE1 191814Z 21008KT 23/07 A2993 RMK A01 T02320067  RH  034%=      5-min Rain = 0
KWE1 191815Z 20006KT 23/07 A2993 RMK A01 T02310065  RH  034%=      5-min Rain = 0
KWE1 191816Z 19007KT 23/07 A2993 RMK A01 T02310066  RH  035%=      5-min Rain = 0
KWE1 191817Z 19008KT 23/07 A2993 RMK A01 T02330068  RH  035%=      5-min Rain = 0
KWE1 191818Z 21009KT 23/07 A2993 RMK A01 T02340066  RH  034%=      5-min Rain = 0
KWE1 191819Z 19007KT 23/06 A2993 RMK A01 T02320064  RH  034%=      5-min Rain = 0
KWE1 191820Z 21009G14KT 23/07 A2993 RMK A01 T02310065  RH  034%=      5-min Rain = 0
KWE1 191821Z 21011KT 23/07 A2993 RMK A01 T02320066  RH  034%=      5-min Rain = 0
KWE1 191822Z 21009KT 23/07 A2993 RMK A01 T02340066  RH  034%=      5-min Rain = 0
KWE1 191823Z 21007KT 23/07 A2993 RMK A01 T02330066  RH  034%=      5-min Rain = 0
KWE1 191824Z 19007KT 23/07 A2992 RMK A01 T02340066  RH  034%=      5-min Rain = 0
KWE1 191825Z 20007KT 23/07 A2992 RMK A01 T02340065  RH  034%=      5-min Rain = 0
KWE1 191826Z 20009KT 23/07 A2992 RMK A01 T02320065  RH  034%=      5-min Rain = 0
KWE1 191827Z 19010KT 23/07 A2992 RMK A01 T02340067  RH  034%=      5-min Rain = 0
KWE1 191828Z 20009KT 24/07 A2992 RMK A01 T02350067  RH  034%=      5-min Rain = 0
KWE1 191829Z 20009KT 23/07 A2992 RMK A01 T02340067  RH  034%=      5-min Rain = 0
KWE1 191830Z 19009KT 24/07 A2992 RMK A01 T02350067  RH  034%=      5-min Rain = 0
KWE1 191831Z 19008KT 24/07 A2992 RMK A01 T02350067  RH  034%=      5-min Rain = 0
KWE1 191832Z 21008KT 24/07 A2992 RMK A01 T02370067  RH  034%=      5-min Rain = 0
KWE1 191833Z 20008KT 24/07 A2992 RMK A01 T02360066  RH  033%=      5-min Rain = 0
KWE1 191834Z 20006KT 24/07 A2992 RMK A01 T02350068  RH  034%=      5-min Rain = 0
KWE1 191835Z 20007KT 24/07 A2992 RMK A01 T02380069  RH  034%=      5-min Rain = 0
KWE1 191836Z 19011KT 24/07 A2991 RMK A01 T02410070  RH  033%=      5-min Rain = 0
KWE1 191837Z 19010KT 24/07 A2992 RMK A01 T02410068  RH  033%=      5-min Rain = 0
KWE1 191838Z 19008KT 24/07 A2991 RMK A01 T02380066  RH  033%=      5-min Rain = 0
KWE1 191839Z 20007KT 24/07 A2991 RMK A01 T02360067  RH  034%=      5-min Rain = 0
KWE1 191840Z 20008KT 24/07 A2991 RMK A01 T02370068  RH  034%=      5-min Rain = 0
KWE1 191841Z 19010KT 24/07 A2991 RMK A01 T02390069  RH  033%=      5-min Rain = 0
KWE1 191842Z 22008KT 24/07 A2991 RMK A01 T02400068  RH  033%=      5-min Rain = 0
KWE1 191843Z 20009KT 24/07 A2991 RMK A01 T02410068  RH  033%=      5-min Rain = 0
KWE1 191844Z 20008KT 24/07 A2991 RMK A01 T02420068  RH  033%=      5-min Rain = 0
KWE1 191845Z 21009KT 24/07 A2991 RMK A01 T02430069  RH  033%=      5-min Rain = 0
KWE1 191846Z 20007KT 24/07 A2991 RMK A01 T02440070  RH  033%=      5-min Rain = 0
KWE1 191847Z 17008KT 25/07 A2991 RMK A01 T02450070  RH  033%=      5-min Rain = 0
KWE1 191848Z 17008KT 25/07 A2991 RMK A01 T02460070  RH  032%=      5-min Rain = 0
KWE1 191849Z 20007KT 24/07 A2991 RMK A01 T02440069  RH  033%=      5-min Rain = 0
KWE1 191850Z 20008KT 24/07 A2991 RMK A01 T02430068  RH  033%=      5-min Rain = 0
KWE1 191851Z 19009KT 24/07 A2991 RMK A01 T02420068  RH  033%=      5-min Rain = 0
KWE1 191852Z 18011KT 24/07 A2991 RMK A01 T02410068  RH  033%=      5-min Rain = 0
KWE1 191853Z 18009KT 24/07 A2991 RMK A01 T02420069  RH  033%=      5-min Rain = 0
KWE1 191854Z 19010G15KT 24/07 A299 RMK A01 T02440070  RH  033%=      5-min Rain = 0
KWE1 191855Z 19011KT 24/07 A299 RMK A01 T02440068  RH  032%=      5-min Rain = 0
KWE1 191856Z 19009KT 24/07 A299 RMK A01 T02430068  RH  032%=      5-min Rain = 0
KWE1 191857Z 19010KT 24/07 A299 RMK A01 T02440067  RH  032%=      5-min Rain = 0
KWE1 191858Z 19011KT 24/07 A299 RMK A01 T02440067  RH  032%=      5-min Rain = 0
KWE1 191859Z 20008KT 25/07 A299 RMK A01 T02450069  RH  032%=      5-min Rain = 0
KWE1 191900Z 20008KT 25/07 A299 RMK A01 T02460068  RH  032%=      5-min Rain = 0
KWE1 191901Z 19007KT 25/07 A299 RMK A01 T02460067  RH  032%=      5-min Rain = 0
KWE1 191902Z 19009KT 25/07 A299 RMK A01 T02460068  RH  032%=      5-min Rain = 0
KWE1 191903Z 20012KT 25/07 A299 RMK A01 T02460066  RH  031%=      5-min Rain = 0
KWE1 191904Z 20010KT 24/06 A299 RMK A01 T02440064  RH  031%=      5-min Rain = 0
KWE1 191905Z 20009KT 24/06 A299 RMK A01 T02410063  RH  032%=      5-min Rain = 0
KWE1 191906Z 20009KT 24/07 A299 RMK A01 T02410067  RH  033%=      5-min Rain = 0
KWE1 191907Z 19008KT 25/07 A299 RMK A01 T02450069  RH  032%=      5-min Rain = 0
KWE1 191908Z 19007KT 25/07 A299 RMK A01 T02470067  RH  032%=      5-min Rain = 0
KWE1 191909Z 19007KT 25/07 A299 RMK A01 T02470067  RH  031%=      5-min Rain = 0
KWE1 191910Z 18006KT 25/07 A299 RMK A01 T02490068  RH  031%=      5-min Rain = 0
KWE1 191911Z 18008KT 25/07 A299 RMK A01 T02530071  RH  031%=      5-min Rain = 0
KWE1 191912Z 19010KT 26/06 A299 RMK A01 T02550064  RH  030%=      5-min Rain = 0
KWE1 191913Z 19009G14KT 25/06 A2989 RMK A01 T02540063  RH  030%=      5-min Rain = 0
KWE1 191914Z 18010KT 25/06 A2989 RMK A01 T02520062  RH  030%=      5-min Rain = 0
KWE1 191915Z 17011KT 25/06 A2989 RMK A01 T02510062  RH  030%=      5-min Rain = 0
KWE1 191916Z 16010KT 25/06 A2989 RMK A01 T02500062  RH  030%=      5-min Rain = 0
KWE1 191917Z 15009KT 25/06 A2989 RMK A01 T02500061  RH  030%=      5-min Rain = 0
KWE1 191918Z 18010KT 25/06 A2989 RMK A01 T02490063  RH  030%=      5-min Rain = 0
KWE1 191919Z 18008KT 25/06 A2989 RMK A01 T02510064  RH  030%=      5-min Rain = 0
KWE1 191920Z 19010KT 25/06 A2989 RMK A01 T02530063  RH  030%=      5-min Rain = 0
KWE1 191921Z 19012KT 25/06 A2989 RMK A01 T02530063  RH  030%=      5-min Rain = 0
KWE1 191922Z 20011KT 25/06 A2989 RMK A01 T02520061  RH  029%=      5-min Rain = 0
KWE1 191923Z 17009KT 25/06 A2989 RMK A01 T02500060  RH  029%=      5-min Rain = 0
KWE1 191924Z 18011KT 25/06 A2989 RMK A01 T02500061  RH  030%=      5-min Rain = 0
KWE1 191925Z 20011KT 25/06 A2989 RMK A01 T02520060  RH  029%=      5-min Rain = 0
KWE1 191926Z 20011KT 25/06 A2989 RMK A01 T02520060  RH  029%=      5-min Rain = 0
KWE1 191927Z 18008KT 25/06 A2989 RMK A01 T02510061  RH  030%=      5-min Rain = 0
KWE1 191928Z 15008KT 25/06 A2989 RMK A01 T02510063  RH  030%=      5-min Rain = 0
KWE1 191929Z 18009KT 25/06 A2989 RMK A01 T02510063  RH  030%=      5-min Rain = 0
KWE1 191930Z 19010KT 25/06 A2989 RMK A01 T02520062  RH  030%=      5-min Rain = 0
KWE1 191931Z 18009KT 25/06 A2989 RMK A01 T02520061  RH  029%=      5-min Rain = 0
KWE1 191932Z 17009KT 25/06 A2989 RMK A01 T02520060  RH  029%=      5-min Rain = 0
KWE1 191933Z 15007KT 25/06 A2989 RMK A01 T02530061  RH  029%=      5-min Rain = 0
KWE1 191934Z 16011KT 25/06 A2988 RMK A01 T02540062  RH  029%=      5-min Rain = 0
KWE1 191935Z 19011KT 26/06 A2988 RMK A01 T02560059  RH  028%=      5-min Rain = 0
KWE1 191936Z 18011KT 26/06 A2988 RMK A01 T02550058  RH  028%=      5-min Rain = 0
KWE1 191937Z 18009KT 25/06 A2988 RMK A01 T02530056  RH  028%=      5-min Rain = 0
KWE1 191938Z 17010KT 25/06 A2988 RMK A01 T02520057  RH  028%=      5-min Rain = 0
KWE1 191939Z 18011KT 25/06 A2988 RMK A01 T02510057  RH  029%=      5-min Rain = 0
KWE1 191940Z 18011KT 25/06 A2988 RMK A01 T02520056  RH  028%=      5-min Rain = 0
KWE1 191941Z 17009KT 25/06 A2988 RMK A01 T02510055  RH  028%=      5-min Rain = 0
KWE1 191942Z 19009KT 25/06 A2988 RMK A01 T02510056  RH  029%=      5-min Rain = 0
KWE1 191943Z 18010KT 25/06 A2988 RMK A01 T02520056  RH  028%=      5-min Rain = 0
KWE1 191944Z 18011KT 25/06 A2988 RMK A01 T02520055  RH  028%=      5-min Rain = 0
KWE1 191945Z 19011KT 25/06 A2988 RMK A01 T02520055  RH  028%=      5-min Rain = 0
KWE1 191946Z 19011G16KT 25/06 A2988 RMK A01 T02520055  RH  028%=      5-min Rain = 0
KWE1 191947Z 20012KT 25/06 A2988 RMK A01 T02510055  RH  028%=      5-min Rain = 0
KWE1 191948Z 18007KT 25/06 A2988 RMK A01 T02510057  RH  029%=      5-min Rain = 0
KWE1 191949Z 17008KT 25/06 A2988 RMK A01 T02530058  RH  029%=      5-min Rain = 0
KWE1 191950Z 18008G14KT 25/06 A2988 RMK A01 T02540058  RH  028%=      5-min Rain = 0
KWE1 191951Z 18009KT 25/06 A2988 RMK A01 T02540057  RH  028%=      5-min Rain = 0
KWE1 191952Z 18009KT 25/06 A2987 RMK A01 T02530059  RH  029%=      5-min Rain = 0
KWE1 191953Z 18007KT 25/06 A2987 RMK A01 T02530059  RH  029%=      5-min Rain = 0
KWE1 191954Z 17009KT 26/06 A2987 RMK A01 T02550059  RH  028%=      5-min Rain = 0
KWE1 191955Z 16010KT 26/06 A2987 RMK A01 T02560058  RH  028%=      5-min Rain = 0
KWE1 191956Z 17010KT 26/06 A2987 RMK A01 T02560059  RH  028%=      5-min Rain = 0
KWE1 191957Z 17009KT 26/06 A2987 RMK A01 T02570060  RH  028%=      5-min Rain = 0
KWE1 191958Z 16010KT 26/06 A2987 RMK A01 T02580060  RH  028%=      5-min Rain = 0
KWE1 191959Z 18009KT 26/06 A2987 RMK A01 T02580061  RH  028%=      5-min Rain = 0
KWE1 192000Z 17010KT 26/06 A2987 RMK A01 T02570061  RH  028%=      5-min Rain = 0
KWE1 192001Z 19009KT 26/06 A2987 RMK A01 T02570059  RH  028%=      5-min Rain = 0
KWE1 192002Z 19009G14KT 26/06 A2987 RMK A01 T02580060  RH  028%=      5-min Rain = 0
KWE1 192003Z 19010KT 26/06 A2987 RMK A01 T02580060  RH  028%=      5-min Rain = 0
KWE1 192004Z 17009KT 26/06 A2987 RMK A01 T02570060  RH  028%=      5-min Rain = 0
KWE1 192005Z 19008KT 26/06 A2987 RMK A01 T02570061  RH  028%=      5-min Rain = 0
KWE1 192006Z 19010KT 26/06 A2987 RMK A01 T02600063  RH  028%=      5-min Rain = 0
KWE1 192007Z 19008KT 26/06 A2987 RMK A01 T02580060  RH  028%=      5-min Rain = 0
KWE1 192008Z 19007KT 26/06 A2987 RMK A01 T02570061  RH  028%=      5-min Rain = 0
KWE1 192009Z 18008KT 26/06 A2987 RMK A01 T02580063  RH  029%=      5-min Rain = 0
KWE1 192010Z 17011KT 26/06 A2987 RMK A01 T02600062  RH  028%=      5-min Rain = 0
KWE1 192011Z 17008KT 26/06 A2986 RMK A01 T02600060  RH  028%=      5-min Rain = 0
KWE1 192012Z 16007KT 26/06 A2986 RMK A01 T02590060  RH  028%=      5-min Rain = 0
KWE1 192013Z 18009KT 26/06 A2986 RMK A01 T02590060  RH  028%=      5-min Rain = 0
KWE1 192014Z 17011KT 26/06 A2986 RMK A01 T02590061  RH  028%=      5-min Rain = 0
KWE1 192015Z 17012KT 26/06 A2986 RMK A01 T02610060  RH  028%=      5-min Rain = 0
KWE1 192016Z 17011KT 26/06 A2986 RMK A01 T02600058  RH  027%=      5-min Rain = 0
KWE1 192017Z 17007KT 26/06 A2986 RMK A01 T02590059  RH  028%=      5-min Rain = 0
KWE1 192018Z 17010KT 26/06 A2986 RMK A01 T02590059  RH  028%=      5-min Rain = 0
KWE1 192019Z 17012KT 26/06 A2986 RMK A01 T02590059  RH  028%=      5-min Rain = 0
KWE1 192020Z 19009KT 26/06 A2986 RMK A01 T02600059  RH  028%=      5-min Rain = 0
KWE1 192021Z 18007KT 26/06 A2986 RMK A01 T02600057  RH  027%=      5-min Rain = 0
KWE1 192022Z 17009KT 26/06 A2986 RMK A01 T02600058  RH  027%=      5-min Rain = 0
KWE1 192023Z 18009KT 26/06 A2986 RMK A01 T02620058  RH  027%=      5-min Rain = 0
KWE1 192024Z 20009KT 26/06 A2986 RMK A01 T02640057  RH  027%=      5-min Rain = 0
KWE1 192025Z 20008KT 26/06 A2986 RMK A01 T02630056  RH  026%=      5-min Rain = 0
KWE1 192026Z 19008KT 26/06 A2986 RMK A01 T02620058  RH  027%=      5-min Rain = 0
KWE1 192027Z 18012KT 26/05 A2986 RMK A01 T02620054  RH  026%=      5-min Rain = 0
KWE1 192028Z 18010KT 26/05 A2985 RMK A01 T02630050  RH  026%=      5-min Rain = 0
KWE1 192029Z 19012KT 26/05 A2985 RMK A01 T02620048  RH  025%=      5-min Rain = 0
KWE1 192030Z 19014KT 26/05 A2985 RMK A01 T02620048  RH  025%=      5-min Rain = 0
KWE1 192031Z 17011G17KT 26/05 A2985 RMK A01 T02620049  RH  025%=      5-min Rain = 0
KWE1 192032Z 17013G18KT 26/05 A2985 RMK A01 T02640048  RH  025%=      5-min Rain = 0
KWE1 192033Z 18010G15KT 27/05 A2985 RMK A01 T02650050  RH  025%=      5-min Rain = 0
KWE1 192034Z 17010KT 27/04 A2985 RMK A01 T02660042  RH  024%=      5-min Rain = 0
KWE1 192035Z 17014KT 27/04 A2985 RMK A01 T02660041  RH  023%=      5-min Rain = 0
KWE1 192036Z 17012KT 27/04 A2985 RMK A01 T02660039  RH  023%=      5-min Rain = 0
KWE1 192037Z 17011KT 27/04 A2985 RMK A01 T02660039  RH  023%=      5-min Rain = 0
KWE1 192038Z 17013G19KT 27/04 A2985 RMK A01 T02660039  RH  023%=      5-min Rain = 0
KWE1 192039Z 17015KT 27/04 A2985 RMK A01 T02660040  RH  023%=      5-min Rain = 0
KWE1 192040Z 18012KT 27/04 A2985 RMK A01 T02660039  RH  023%=      5-min Rain = 0
KWE1 192041Z 18010KT 27/04 A2985 RMK A01 T02650039  RH  023%=      5-min Rain = 0
KWE1 192042Z 18011KT 27/04 A2985 RMK A01 T02650039  RH  023%=      5-min Rain = 0
KWE1 192043Z 17013KT 27/04 A2985 RMK A01 T02650040  RH  023%=      5-min Rain = 0
KWE1 192044Z 17011KT 27/04 A2985 RMK A01 T02650039  RH  023%=      5-min Rain = 0
KWE1 192045Z 17008KT 27/04 A2985 RMK A01 T02660040  RH  023%=      5-min Rain = 0
KWE1 192046Z 18010G16KT 27/04 A2984 RMK A01 T02670042  RH  024%=      5-min Rain = 0
KWE1 192047Z 18012KT 27/04 A2984 RMK A01 T02690041  RH  023%=      5-min Rain = 0
KWE1 192048Z 18011KT 27/04 A2984 RMK A01 T02690039  RH  023%=      5-min Rain = 0
KWE1 192049Z 17012KT 27/04 A2984 RMK A01 T02680039  RH  023%=      5-min Rain = 0
KWE1 192050Z 17012G18KT 27/04 A2984 RMK A01 T02680040  RH  023%=      5-min Rain = 0
KWE1 192051Z 15013KT 27/04 A2984 RMK A01 T02680038  RH  023%=      5-min Rain = 0
KWE1 192052Z 16014KT 27/04 A2984 RMK A01 T02680039  RH  023%=      5-min Rain = 0
KWE1 192053Z 17013KT 27/04 A2984 RMK A01 T02680040  RH  023%=      5-min Rain = 0
KWE1 192054Z 17010KT 27/04 A2984 RMK A01 T02680040  RH  023%=      5-min Rain = 0
KWE1 192055Z 18011KT 27/04 A2985 RMK A01 T02680042  RH  023%=      5-min Rain = 0
KWE1 192056Z 18012KT 27/04 A2985 RMK A01 T02680040  RH  023%=      5-min Rain = 0
KWE1 192057Z 19011KT 27/04 A2985 RMK A01 T02670038  RH  023%=      5-min Rain = 0
KWE1 192058Z 17009KT 27/04 A2985 RMK A01 T02660037  RH  023%=      5-min Rain = 0
KWE1 192059Z 18007KT 27/04 A2985 RMK A01 T02660037  RH  023%=      5-min Rain = 0
KWE1 192100Z 18009KT 27/04 A2984 RMK A01 T02660039  RH  023%=      5-min Rain = 0
KWE1 192101Z 16013KT 27/04 A2984 RMK A01 T02680039  RH  023%=      5-min Rain = 0
KWE1 192102Z 17016KT 27/04 A2984 RMK A01 T02680037  RH  022%=      5-min Rain = 0
KWE1 192103Z 18013G18KT 27/04 A2984 RMK A01 T02660035  RH  023%=      5-min Rain = 0
KWE1 192104Z 18009KT 27/04 A2984 RMK A01 T02650036  RH  023%=      5-min Rain = 0
KWE1 192105Z 19012KT 27/04 A2984 RMK A01 T02660038  RH  023%=      5-min Rain = 0
KWE1 192106Z 17013KT 27/04 A2984 RMK A01 T02660037  RH  023%=      5-min Rain = 0
KWE1 192107Z 16014KT 27/04 A2984 RMK A01 T02660038  RH  023%=      5-min Rain = 0
KWE1 192108Z 15012KT 27/04 A2984 RMK A01 T02660039  RH  023%=      5-min Rain = 0
KWE1 192109Z 17012G18KT 27/04 A2984 RMK A01 T02660039  RH  023%=      5-min Rain = 0
KWE1 192110Z 17016KT 27/04 A2984 RMK A01 T02660039  RH  023%=      5-min Rain = 0
KWE1 192111Z 17014KT 27/04 A2984 RMK A01 T02650037  RH  023%=      5-min Rain = 0
KWE1 192112Z 16011KT 26/04 A2984 RMK A01 T02640037  RH  023%=      5-min Rain = 0
KWE1 192113Z 16011KT 27/04 A2984 RMK A01 T02650037  RH  023%=      5-min Rain = 0
KWE1 192114Z 17010KT 27/04 A2984 RMK A01 T02650036  RH  023%=      5-min Rain = 0
KWE1 192115Z 16016G22KT 27/04 A2984 RMK A01 T02650038  RH  023%=      5-min Rain = 0
KWE1 192116Z 18013KT 27/04 A2984 RMK A01 T02650037  RH  023%=      5-min Rain = 0
KWE1 192117Z 18013KT 27/04 A2984 RMK A01 T02650038  RH  023%=      5-min Rain = 0
KWE1 192118Z 18013KT 27/04 A2984 RMK A01 T02650037  RH  023%=      5-min Rain = 0
KWE1 192119Z 18013KT 27/04 A2984 RMK A01 T02650037  RH  023%=      5-min Rain = 0
KWE1 192120Z 16010KT 27/04 A2984 RMK A01 T02650037  RH  023%=      5-min Rain = 0
KWE1 192121Z 16012KT 27/04 A2984 RMK A01 T02650038  RH  023%=      5-min Rain = 0
KWE1 192122Z 15012KT 27/04 A2983 RMK A01 T02650037  RH  023%=      5-min Rain = 0
KWE1 192123Z 16010KT 27/04 A2984 RMK A01 T02650038  RH  023%=      5-min Rain = 0
KWE1 192124Z 17016KT 27/04 A2983 RMK A01 T02660040  RH  023%=      5-min Rain = 0
KWE1 192125Z 17012KT 27/04 A2983 RMK A01 T02660039  RH  023%=      5-min Rain = 0
KWE1 192126Z 17012KT 27/04 A2983 RMK A01 T02660040  RH  023%=      5-min Rain = 0
KWE1 192127Z 18014KT 27/04 A2983 RMK A01 T02660040  RH  023%=      5-min Rain = 0
KWE1 192128Z 19015KT 27/04 A2983 RMK A01 T02660038  RH  023%=      5-min Rain = 0
KWE1 192129Z 18012KT 27/04 A2984 RMK A01 T02650037  RH  023%=      5-min Rain = 0
KWE1 192130Z 17012KT 26/04 A2983 RMK A01 T02640035  RH  023%=      5-min Rain = 0
KWE1 192131Z 17014KT 26/04 A2983 RMK A01 T02640036  RH  023%=      5-min Rain = 0
KWE1 192132Z 17011KT 26/04 A2983 RMK A01 T02640036  RH  023%=      5-min Rain = 0
KWE1 192133Z 16012KT 26/04 A2983 RMK A01 T02640037  RH  023%=      5-min Rain = 0
KWE1 192134Z 16014KT 26/04 A2983 RMK A01 T02640036  RH  023%=      5-min Rain = 0
KWE1 192135Z 18010KT 26/04 A2983 RMK A01 T02640036  RH  023%=      5-min Rain = 0
KWE1 192136Z 17009KT 26/04 A2983 RMK A01 T02640037  RH  023%=      5-min Rain = 0
KWE1 192137Z 16013KT 26/04 A2983 RMK A01 T02640038  RH  023%=      5-min Rain = 0
KWE1 192138Z 17015KT 26/04 A2983 RMK A01 T02640036  RH  023%=      5-min Rain = 0
KWE1 192139Z 17014KT 26/04 A2983 RMK A01 T02630035  RH  023%=      5-min Rain = 0
KWE1 192140Z 17016KT 26/04 A2983 RMK A01 T02620036  RH  023%=      5-min Rain = 0
KWE1 192141Z 18013KT 26/04 A2983 RMK A01 T02620035  RH  023%=      5-min Rain = 0
KWE1 192142Z 18011KT 26/04 A2983 RMK A01 T02620036  RH  023%=      5-min Rain = 0
KWE1 192143Z 18012KT 26/04 A2983 RMK A01 T02620036  RH  023%=      5-min Rain = 0
KWE1 192144Z 17010KT 26/04 A2983 RMK A01 T02620036  RH  023%=      5-min Rain = 0
KWE1 192145Z 17011KT 26/04 A2983 RMK A01 T02630037  RH  023%=      5-min Rain = 0
KWE1 192146Z 17010KT 26/04 A2983 RMK A01 T02630038  RH  023%=      5-min Rain = 0
KWE1 192147Z 18011KT 26/04 A2983 RMK A01 T02640038  RH  023%=      5-min Rain = 0
KWE1 192148Z 18012KT 26/04 A2983 RMK A01 T02640036  RH  023%=      5-min Rain = 0
KWE1 192149Z 18012G17KT 26/04 A2983 RMK A01 T02630035  RH  023%=      5-min Rain = 0
KWE1 192150Z 17013KT 26/03 A2983 RMK A01 T02620034  RH  023%=      5-min Rain = 0
KWE1 192151Z 18012KT 26/04 A2983 RMK A01 T02620035  RH  023%=      5-min Rain = 0
KWE1 192152Z 17012KT 26/04 A2983 RMK A01 T02620035  RH  023%=      5-min Rain = 0
KWE1 192153Z 17013KT 26/03 A2983 RMK A01 T02620033  RH  023%=      5-min Rain = 0
KWE1 192154Z 17015KT 26/03 A2983 RMK A01 T02620032  RH  023%=      5-min Rain = 0
KWE1 192155Z 17015KT 26/03 A2983 RMK A01 T02620029  RH  022%=      5-min Rain = 0
KWE1 192156Z 16013KT 26/03 A2983 RMK A01 T02610029  RH  022%=      5-min Rain = 0
KWE1 192157Z 17014KT 26/03 A2983 RMK A01 T02610028  RH  022%=      5-min Rain = 0
KWE1 192158Z 17014KT 26/03 A2982 RMK A01 T02610027  RH  022%=      5-min Rain = 0
KWE1 192159Z 16015KT 26/03 A2982 RMK A01 T02610025  RH  022%=      5-min Rain = 0
KWE1 192200Z 16015KT 26/03 A2982 RMK A01 T02610025  RH  022%=      5-min Rain = 0
KWE1 192201Z 17012KT 26/03 A2982 RMK A01 T02600025  RH  022%=      5-min Rain = 0
KWE1 192202Z 18014KT 26/03 A2982 RMK A01 T02610026  RH  022%=      5-min Rain = 0
KWE1 192203Z 17009KT 26/03 A2982 RMK A01 T02600026  RH  022%=      5-min Rain = 0
KWE1 192204Z 17012KT 26/03 A2982 RMK A01 T02600027  RH  022%=      5-min Rain = 0
KWE1 192205Z 17014KT 26/03 A2982 RMK A01 T02610027  RH  022%=      5-min Rain = 0
KWE1 192206Z 18015KT 26/03 A2982 RMK A01 T02600027  RH  022%=      5-min Rain = 0
KWE1 192207Z 18015KT 26/03 A2982 RMK A01 T02590027  RH  022%=      5-min Rain = 0
KWE1 192208Z 17011KT 26/03 A2982 RMK A01 T02580027  RH  022%=      5-min Rain = 0
KWE1 192209Z 17013KT 26/03 A2982 RMK A01 T02580028  RH  022%=      5-min Rain = 0
KWE1 192210Z 17013KT 26/03 A2982 RMK A01 T02580027  RH  022%=      5-min Rain = 0
KWE1 192211Z 18011KT 26/03 A2982 RMK A01 T02580026  RH  022%=      5-min Rain = 0
KWE1 192212Z 17011KT 26/03 A2982 RMK A01 T02590026  RH  022%=      5-min Rain = 0
KWE1 192213Z 17011KT 26/03 A2982 RMK A01 T02590027  RH  022%=      5-min Rain = 0
KWE1 192214Z 18012KT 26/03 A2982 RMK A01 T02580027  RH  022%=      5-min Rain = 0
KWE1 192215Z 19011KT 26/03 A2982 RMK A01 T02580028  RH  022%=      5-min Rain = 0
KWE1 192216Z 20016KT 26/03 A2982 RMK A01 T02580027  RH  022%=      5-min Rain = 0
KWE1 192217Z 19015KT 26/03 A2982 RMK A01 T02570025  RH  022%=      5-min Rain = 0
KWE1 192218Z 18010KT 26/03 A2982 RMK A01 T02560026  RH  022%=      5-min Rain = 0
KWE1 192219Z 18011KT 26/03 A2982 RMK A01 T02560027  RH  023%=      5-min Rain = 0
KWE1 192220Z 18013G18KT 26/03 A2982 RMK A01 T02570027  RH  023%=      5-min Rain = 0
KWE1 192221Z 18013KT 26/03 A2982 RMK A01 T02560025  RH  022%=      5-min Rain = 0
KWE1 192222Z 18009KT 26/03 A2982 RMK A01 T02560025  RH  022%=      5-min Rain = 0
KWE1 192223Z 19013KT 26/03 A2982 RMK A01 T02570026  RH  022%=      5-min Rain = 0
KWE1 192224Z 18013KT 26/03 A2982 RMK A01 T02570025  RH  022%=      5-min Rain = 0
KWE1 192225Z 18009KT 26/03 A2982 RMK A01 T02560025  RH  022%=      5-min Rain = 0
KWE1 192226Z 19013KT 26/03 A2982 RMK A01 T02570026  RH  022%=      5-min Rain = 0
KWE1 192227Z 18013KT 26/02 A2982 RMK A01 T02560024  RH  022%=      5-min Rain = 0
KWE1 192228Z 19010KT 26/03 A2982 RMK A01 T02560025  RH  022%=      5-min Rain = 0
KWE1 192229Z 18010KT 26/03 A2982 RMK A01 T02560026  RH  022%=      5-min Rain = 0
KWE1 192230Z 18011KT 26/03 A2982 RMK A01 T02560026  RH  022%=      5-min Rain = 0
KWE1 192231Z 19013KT 26/03 A2982 RMK A01 T02560026  RH  022%=      5-min Rain = 0
KWE1 192232Z 19012KT 26/02 A2982 RMK A01 T02550024  RH  022%=      5-min Rain = 0
KWE1 192233Z 19012KT 26/03 A2982 RMK A01 T02550025  RH  022%=      5-min Rain = 0
KWE1 192234Z 18013KT 26/03 A2982 RMK A01 T02550025  RH  022%=      5-min Rain = 0
KWE1 192235Z 18013KT 26/03 A2982 RMK A01 T02550026  RH  023%=      5-min Rain = 0
KWE1 192236Z 19013KT 25/03 A2982 RMK A01 T02540026  RH  023%=      5-min Rain = 0
KWE1 192237Z 19011KT 25/03 A2982 RMK A01 T02540027  RH  023%=      5-min Rain = 0
KWE1 192238Z 17011KT 25/03 A2982 RMK A01 T02540028  RH  023%=      5-min Rain = 0
KWE1 192239Z 17010KT 25/03 A2982 RMK A01 T02540029  RH  023%=      5-min Rain = 0
KWE1 192240Z 18009KT 25/03 A2982 RMK A01 T02540029  RH  023%=      5-min Rain = 0
KWE1 192241Z 17013KT 25/03 A2982 RMK A01 T02540029  RH  023%=      5-min Rain = 0
KWE1 192242Z 17013KT 25/03 A2982 RMK A01 T02540029  RH  023%=      5-min Rain = 0
KWE1 192243Z 17011KT 25/03 A2982 RMK A01 T02530029  RH  023%=      5-min Rain = 0
KWE1 192244Z 17014KT 25/03 A2982 RMK A01 T02520029  RH  023%=      5-min Rain = 0
KWE1 192245Z 18009KT 25/03 A2982 RMK A01 T02520028  RH  023%=      5-min Rain = 0
KWE1 192246Z 18011KT 25/03 A2982 RMK A01 T02510028  RH  023%=      5-min Rain = 0
KWE1 192247Z 18011KT 25/03 A2981 RMK A01 T02510027  RH  023%=      5-min Rain = 0
KWE1 192248Z 18010KT 25/03 A2981 RMK A01 T02500027  RH  023%=      5-min Rain = 0
KWE1 192249Z 18008KT 25/03 A2981 RMK A01 T02490028  RH  024%=      5-min Rain = 0
KWE1 192250Z 19011KT 25/03 A2981 RMK A01 T02490028  RH  024%=      5-min Rain = 0
KWE1 192251Z 18010KT 25/03 A2981 RMK A01 T02490027  RH  024%=      5-min Rain = 0
KWE1 192252Z 18008KT 25/03 A2982 RMK A01 T02490028  RH  024%=      5-min Rain = 0
KWE1 192253Z 19008KT 25/03 A2982 RMK A01 T02480027  RH  024%=      5-min Rain = 0
KWE1 192254Z 18009KT 25/03 A2982 RMK A01 T02460026  RH  024%=      5-min Rain = 0
KWE1 192255Z 18009KT 25/03 A2982 RMK A01 T02460027  RH  024%=      5-min Rain = 0
KWE1 192256Z 18008KT 25/03 A2982 RMK A01 T02450027  RH  024%=      5-min Rain = 0
KWE1 192257Z 18009KT 25/03 A2982 RMK A01 T02450027  RH  024%=      5-min Rain = 0
KWE1 192258Z 18008KT 25/03 A2982 RMK A01 T02450027  RH  024%=      5-min Rain = 0
KWE1 192259Z 19007KT 25/03 A2982 RMK A01 T02450027  RH  024%=      5-min Rain = 0
KWE1 192300Z 18009KT 24/03 A2982 RMK A01 T02440027  RH  024%=      5-min Rain = 0
KWE1 192301Z 18010KT 24/03 A2982 RMK A01 T02440027  RH  024%=      5-min Rain = 0
KWE1 192302Z 18009KT 24/03 A2982 RMK A01 T02440027  RH  024%=      5-min Rain = 0
KWE1 192303Z 18009KT 24/03 A2982 RMK A01 T02440027  RH  024%=      5-min Rain = 0
KWE1 192304Z 18010KT 24/03 A2982 RMK A01 T02430028  RH  025%=      5-min Rain = 0
KWE1 192305Z 18009KT 24/03 A2982 RMK A01 T02430027  RH  025%=      5-min Rain = 0
KWE1 192306Z 19011KT 24/03 A2982 RMK A01 T02430028  RH  025%=      5-min Rain = 0
KWE1 192307Z 19010KT 24/03 A2982 RMK A01 T02430028  RH  025%=      5-min Rain = 0
KWE1 192308Z 18009KT 24/03 A2982 RMK A01 T02420028  RH  025%=      5-min Rain = 0
KWE1 192309Z 18008KT 24/03 A2982 RMK A01 T02420028  RH  025%=      5-min Rain = 0
KWE1 192310Z 18008KT 24/03 A2982 RMK A01 T02420029  RH  025%=      5-min Rain = 0
KWE1 192311Z 18010KT 24/03 A2982 RMK A01 T02410029  RH  025%=      5-min Rain = 0
KWE1 192312Z 19008KT 24/03 A2982 RMK A01 T02400028  RH  025%=      5-min Rain = 0
KWE1 192313Z 19008KT 24/03 A2982 RMK A01 T02390029  RH  025%=      5-min Rain = 0
KWE1 192314Z 18007KT 24/03 A2982 RMK A01 T02370029  RH  026%=      5-min Rain = 0
KWE1 192315Z 19008KT 24/03 A2982 RMK A01 T02360029  RH  026%=      5-min Rain = 0
KWE1 192316Z 18007KT 24/03 A2982 RMK A01 T02350029  RH  026%=      5-min Rain = 0
KWE1 192317Z 18008KT 23/03 A2982 RMK A01 T02340030  RH  026%=      5-min Rain = 0
KWE1 192318Z 18007KT 23/03 A2982 RMK A01 T02330029  RH  026%=      5-min Rain = 0
KWE1 192319Z 18007KT 23/03 A2982 RMK A01 T02320030  RH  027%=      5-min Rain = 0
KWE1 192320Z 17007KT 23/03 A2982 RMK A01 T02310030  RH  027%=      5-min Rain = 0
KWE1 192321Z 18007KT 23/03 A2982 RMK A01 T02300031  RH  027%=      5-min Rain = 0
KWE1 192322Z 18007KT 23/03 A2982 RMK A01 T02290031  RH  027%=      5-min Rain = 0
KWE1 192323Z 18007KT 23/03 A2982 RMK A01 T02290030  RH  027%=      5-min Rain = 0
KWE1 192324Z 18007KT 23/03 A2982 RMK A01 T02290030  RH  027%=      5-min Rain = 0
KWE1 192325Z 18007KT 23/03 A2982 RMK A01 T02280030  RH  027%=      5-min Rain = 0
KWE1 192326Z 17007KT 23/03 A2982 RMK A01 T02280031  RH  028%=      5-min Rain = 0
KWE1 192327Z 18007KT 23/03 A2982 RMK A01 T02260031  RH  028%=      5-min Rain = 0
KWE1 192328Z 17008KT 23/03 A2982 RMK A01 T02250031  RH  028%=      5-min Rain = 0
KWE1 192329Z 18009KT 23/03 A2982 RMK A01 T02250030  RH  028%=      5-min Rain = 0
KWE1 192330Z 18007KT 23/03 A2982 RMK A01 T02260031  RH  028%=      5-min Rain = 0
KWE1 192331Z 18007KT 23/03 A2982 RMK A01 T02260030  RH  028%=      5-min Rain = 0
KWE1 192332Z 17009KT 23/03 A2982 RMK A01 T02250030  RH  028%=      5-min Rain = 0
KWE1 192333Z 17010KT 23/03 A2982 RMK A01 T02250030  RH  028%=      5-min Rain = 0
KWE1 192334Z 17009KT 23/03 A2982 RMK A01 T02250029  RH  028%=      5-min Rain = 0
KWE1 192335Z 18008KT 23/03 A2982 RMK A01 T02270030  RH  027%=      5-min Rain = 0
KWE1 192336Z 18009KT 23/03 A2982 RMK A01 T02270030  RH  027%=      5-min Rain = 0
KWE1 192337Z 18009KT 23/03 A2982 RMK A01 T02270030  RH  028%=      5-min Rain = 0
KWE1 192338Z 18008KT 23/03 A2982 RMK A01 T02260030  RH  028%=      5-min Rain = 0
KWE1 192339Z 18007KT 23/03 A2982 RMK A01 T02250030  RH  028%=      5-min Rain = 0
KWE1 192340Z 18007KT 22/03 A2982 RMK A01 T02240030  RH  028%=      5-min Rain = 0
KWE1 192341Z 18008KT 22/03 A2982 RMK A01 T02230030  RH  028%=      5-min Rain = 0
KWE1 192342Z 17010KT 22/03 A2982 RMK A01 T02230031  RH  028%=      5-min Rain = 0
KWE1 192343Z 17009KT 22/03 A2982 RMK A01 T02230031  RH  028%=      5-min Rain = 0
KWE1 192344Z 18008KT 22/03 A2982 RMK A01 T02240032  RH  028%=      5-min Rain = 0
KWE1 192345Z 17008KT 22/03 A2982 RMK A01 T02230032  RH  029%=      5-min Rain = 0
KWE1 192346Z 18008KT 22/03 A2982 RMK A01 T02220032  RH  029%=      5-min Rain = 0
KWE1 192347Z 17009KT 22/03 A2982 RMK A01 T02200032  RH  029%=      5-min Rain = 0
KWE1 192348Z 17009KT 22/03 A2982 RMK A01 T02200032  RH  029%=      5-min Rain = 0
KWE1 192349Z 17008KT 22/03 A2982 RMK A01 T02200033  RH  029%=      5-min Rain = 0
KWE1 192350Z 17007KT 22/03 A2982 RMK A01 T02190033  RH  029%=      5-min Rain = 0
KWE1 192351Z 17007KT 22/03 A2982 RMK A01 T02170032  RH  030%=      5-min Rain = 0
KWE1 192352Z 17008KT 22/03 A2982 RMK A01 T02160032  RH  030%=      5-min Rain = 0
KWE1 192353Z 17007KT 21/03 A2982 RMK A01 T02140032  RH  030%=      5-min Rain = 0
KWE1 192354Z 17007KT 21/03 A2982 RMK A01 T02130032  RH  030%=      5-min Rain = 0
KWE1 192355Z 17007KT 21/03 A2982 RMK A01 T02110032  RH  031%=      5-min Rain = 0
KWE1 192356Z 17007KT 21/03 A2982 RMK A01 T02100032  RH  031%=      5-min Rain = 0
KWE1 192357Z 16008KT 21/03 A2982 RMK A01 T02090033  RH  031%=      5-min Rain = 0
KWE1 192358Z 16009KT 21/03 A2982 RMK A01 T02080033  RH  031%=      5-min Rain = 0
KWE1 192359Z 15008KT 21/03 A2982 RMK A01 T02070033  RH  032%=      5-min Rain = 0
KWE1 200000Z 15008KT 21/03 A2982 RMK A01 T02060033  RH  032%=      5-min Rain = 0
KWE1 200001Z 16009KT 21/03 A2982 RMK A01 T02050033  RH  032%=      5-min Rain = 0
KWE1 200002Z 16009KT 21/03 A2982 RMK A01 T02050033  RH  032%=      5-min Rain = 0
KWE1 200003Z 16008KT 21/03 A2982 RMK A01 T02050033  RH  032%=      5-min Rain = 0
KWE1 200004Z 16008KT 21/03 A2982 RMK A01 T02060034  RH  032%=      5-min Rain = 0
KWE1 200005Z 16008KT 21/03 A2982 RMK A01 T02060034  RH  032%=      5-min Rain = 0
KWE1 200006Z 16009KT 21/04 A2982 RMK A01 T02060035  RH  032%=      5-min Rain = 0
KWE1 200007Z 16009KT 21/04 A2982 RMK A01 T02060035  RH  032%=      5-min Rain = 0
KWE1 200008Z 16009KT 21/04 A2982 RMK A01 T02060035  RH  032%=      5-min Rain = 0
KWE1 200009Z 16008KT 21/04 A2982 RMK A01 T02060035  RH  032%=      5-min Rain = 0
KWE1 200010Z 16008KT 21/04 A2982 RMK A01 T02050035  RH  032%=      5-min Rain = 0
KWE1 200011Z 16007KT 21/04 A2982 RMK A01 T02050035  RH  033%=      5-min Rain = 0
KWE1 200012Z 16009KT 20/04 A2982 RMK A01 T02040035  RH  033%=      5-min Rain = 0
KWE1 200013Z 16009KT 20/03 A2982 RMK A01 T02040034  RH  033%=      5-min Rain = 0
KWE1 200014Z 15009KT 20/04 A2982 RMK A01 T02040035  RH  033%=      5-min Rain = 0
KWE1 200015Z 16009KT 20/03 A2982 RMK A01 T02040034  RH  033%=      5-min Rain = 0
KWE1 200016Z 16009KT 20/03 A2982 RMK A01 T02040034  RH  033%=      5-min Rain = 0
KWE1 200017Z 16009KT 20/03 A2982 RMK A01 T02040034  RH  033%=      5-min Rain = 0
KWE1 200018Z 16009KT 20/03 A2982 RMK A01 T02040034  RH  033%=      5-min Rain = 0
KWE1 200019Z 16010KT 20/03 A2982 RMK A01 T02040034  RH  032%=      5-min Rain = 0
KWE1 200020Z 16010KT 21/04 A2982 RMK A01 T02050035  RH  032%=      5-min Rain = 0
KWE1 200021Z 16009KT 21/04 A2982 RMK A01 T02060035  RH  032%=      5-min Rain = 0
KWE1 200022Z 15008KT 21/04 A2982 RMK A01 T02060035  RH  032%=      5-min Rain = 0
KWE1 200023Z 16009KT 21/04 A2982 RMK A01 T02060035  RH  032%=      5-min Rain = 0
KWE1 200024Z 15009KT 21/04 A2982 RMK A01 T02060035  RH  032%=      5-min Rain = 0
KWE1 200025Z 16008KT 21/04 A2982 RMK A01 T02060035  RH  032%=      5-min Rain = 0
KWE1 200026Z 16009KT 21/04 A2982 RMK A01 T02060035  RH  032%=      5-min Rain = 0
KWE1 200027Z 16008KT 21/04 A2982 RMK A01 T02050035  RH  033%=      5-min Rain = 0
KWE1 200028Z 16009KT 20/04 A2982 RMK A01 T02040035  RH  033%=      5-min Rain = 0
KWE1 200029Z 16011KT 20/04 A2982 RMK A01 T02040036  RH  033%=      5-min Rain = 0
KWE1 200030Z 16011KT 21/04 A2982 RMK A01 T02050037  RH  033%=      5-min Rain = 0
KWE1 200031Z 16010KT 21/04 A2982 RMK A01 T02060038  RH  033%=      5-min Rain = 0
KWE1 200032Z 16008KT 21/04 A2982 RMK A01 T02070038  RH  033%=      5-min Rain = 0
KWE1 200033Z 16010KT 21/04 A2982 RMK A01 T02070039  RH  033%=      5-min Rain = 0
KWE1 200034Z 16011KT 21/04 A2982 RMK A01 T02070039  RH  033%=      5-min Rain = 0
KWE1 200035Z 16011KT 21/04 A2982 RMK A01 T02070039  RH  033%=      5-min Rain = 0
KWE1 200036Z 16010KT 21/04 A2982 RMK A01 T02070039  RH  033%=      5-min Rain = 0
KWE1 200037Z 16011KT 21/04 A2982 RMK A01 T02070039  RH  033%=      5-min Rain = 0
KWE1 200038Z 16010KT 21/04 A2982 RMK A01 T02070039  RH  033%=      5-min Rain = 0
KWE1 200039Z 16010KT 21/04 A2982 RMK A01 T02070040  RH  033%=      5-min Rain = 0
KWE1 200040Z 16010KT 21/04 A2982 RMK A01 T02070040  RH  033%=      5-min Rain = 0
KWE1 200041Z 16008KT 21/04 A2982 RMK A01 T02060041  RH  034%=      5-min Rain = 0
KWE1 200042Z 16009KT 21/04 A2982 RMK A01 T02050041  RH  034%=      5-min Rain = 0
KWE1 200043Z 16009KT 20/04 A2982 RMK A01 T02040041  RH  034%=      5-min Rain = 0
KWE1 200044Z 16011KT 20/04 A2982 RMK A01 T02030041  RH  034%=      5-min Rain = 0
KWE1 200045Z 16011KT 20/04 A2982 RMK A01 T02030041  RH  034%=      5-min Rain = 0
KWE1 200046Z 16010KT 20/04 A2982 RMK A01 T02030042  RH  035%=      5-min Rain = 0
KWE1 200047Z 16010KT 20/04 A2982 RMK A01 T02030042  RH  035%=      5-min Rain = 0
KWE1 200048Z 16010KT 20/04 A2982 RMK A01 T02030042  RH  035%=      5-min Rain = 0
KWE1 200049Z 16009KT 20/04 A2982 RMK A01 T02010041  RH  035%=      5-min Rain = 0
KWE1 200050Z 16009KT 20/04 A2983 RMK A01 T02000041  RH  035%=      5-min Rain = 0
KWE1 200051Z 16008KT 20/04 A2983 RMK A01 T01990041  RH  035%=      5-min Rain = 0
KWE1 200052Z 16009KT 20/04 A2983 RMK A01 T01970041  RH  035%=      5-min Rain = 0
KWE1 200053Z 16011KT 20/04 A2983 RMK A01 T01970041  RH  036%=      5-min Rain = 0
KWE1 200054Z 16009KT 20/04 A2983 RMK A01 T01970041  RH  036%=      5-min Rain = 0
KWE1 200055Z 15009KT 20/04 A2983 RMK A01 T01970042  RH  036%=      5-min Rain = 0
KWE1 200056Z 15009KT 20/04 A2983 RMK A01 T01970041  RH  036%=      5-min Rain = 0
KWE1 200057Z 15008KT 20/04 A2983 RMK A01 T01960041  RH  036%=      5-min Rain = 0
KWE1 200058Z 15008KT 20/04 A2983 RMK A01 T01950040  RH  036%=      5-min Rain = 0
KWE1 200059Z 15010KT 19/04 A2982 RMK A01 T01940040  RH  036%=      5-min Rain = 0
KWE1 200100Z 16009KT 19/04 A2982 RMK A01 T01930040  RH  036%=      5-min Rain = 0
KWE1 200101Z 15009KT 19/04 A2982 RMK A01 T01920041  RH  037%=      5-min Rain = 0
KWE1 200102Z 15009KT 19/04 A2982 RMK A01 T01920040  RH  037%=      5-min Rain = 0
KWE1 200103Z 15009KT 19/04 A2982 RMK A01 T01920040  RH  037%=      5-min Rain = 0
KWE1 200104Z 15009KT 19/04 A2982 RMK A01 T01900040  RH  037%=      5-min Rain = 0
KWE1 200105Z 15008KT 19/04 A2982 RMK A01 T01890039  RH  037%=      5-min Rain = 0
KWE1 200106Z 15009KT 19/04 A2982 RMK A01 T01880040  RH  037%=      5-min Rain = 0
KWE1 200107Z 15010KT 19/04 A2982 RMK A01 T01870039  RH  038%=      5-min Rain = 0
KWE1 200108Z 15010KT 19/04 A2982 RMK A01 T01860039  RH  038%=      5-min Rain = 0
KWE1 200109Z 15010KT 19/04 A2982 RMK A01 T01850039  RH  038%=      5-min Rain = 0
KWE1 200110Z 14010KT 19/04 A2982 RMK A01 T01850039  RH  038%=      5-min Rain = 0
KWE1 200111Z 15010KT 18/04 A2982 RMK A01 T01840039  RH  038%=      5-min Rain = 0
KWE1 200112Z 14011G18KT 18/04 A2982 RMK A01 T01830039  RH  038%=      5-min Rain = 0
KWE1 200113Z 14010KT 18/04 A2982 RMK A01 T01820039  RH  039%=      5-min Rain = 0
KWE1 200114Z 15009KT 18/04 A2982 RMK A01 T01820039  RH  039%=      5-min Rain = 0
KWE1 200115Z 14009KT 18/04 A2982 RMK A01 T01820039  RH  039%=      5-min Rain = 0
KWE1 200116Z 14008KT 18/04 A2982 RMK A01 T01820040  RH  039%=      5-min Rain = 0
KWE1 200117Z 15009KT 18/04 A2982 RMK A01 T01810040  RH  039%=      5-min Rain = 0
KWE1 200118Z 15008KT 18/04 A2982 RMK A01 T01810040  RH  039%=      5-min Rain = 0
KWE1 200119Z 15009KT 18/04 A2982 RMK A01 T01800040  RH  039%=      5-min Rain = 0
KWE1 200120Z 15009KT 18/04 A2982 RMK A01 T01790040  RH  040%=      5-min Rain = 0
KWE1 200121Z 15009KT 18/04 A2982 RMK A01 T01790040  RH  040%=      5-min Rain = 0
KWE1 200122Z 15009KT 18/04 A2982 RMK A01 T01780041  RH  040%=      5-min Rain = 0
KWE1 200123Z 15010KT 18/04 A2982 RMK A01 T01780041  RH  040%=      5-min Rain = 0
KWE1 200124Z 15009KT 18/04 A2982 RMK A01 T01780041  RH  040%=      5-min Rain = 0
KWE1 200125Z 15010KT 18/04 A2982 RMK A01 T01780041  RH  040%=      5-min Rain = 0
KWE1 200126Z 15010KT 18/04 A2982 RMK A01 T01770041  RH  041%=      5-min Rain = 0
KWE1 200127Z 15010KT 18/04 A2982 RMK A01 T01760041  RH  041%=      5-min Rain = 0
KWE1 200128Z 15010KT 18/04 A2982 RMK A01 T01760041  RH  041%=      5-min Rain = 0
KWE1 200129Z 15009KT 18/04 A2982 RMK A01 T01760041  RH  041%=      5-min Rain = 0
KWE1 200130Z 15010KT 18/04 A2982 RMK A01 T01750041  RH  041%=      5-min Rain = 0
KWE1 200131Z 15009KT 18/04 A2982 RMK A01 T01750041  RH  041%=      5-min Rain = 0
KWE1 200132Z 15010KT 18/04 A2982 RMK A01 T01750041  RH  041%=      5-min Rain = 0
KWE1 200133Z 15010KT 17/04 A2982 RMK A01 T01740041  RH  041%=      5-min Rain = 0
KWE1 200134Z 15009KT 17/04 A2982 RMK A01 T01730041  RH  041%=      5-min Rain = 0
KWE1 200135Z 14010KT 17/04 A2982 RMK A01 T01730041  RH  041%=      5-min Rain = 0
KWE1 200136Z 14009KT 17/04 A2982 RMK A01 T01720040  RH  042%=      5-min Rain = 0
KWE1 200137Z 15009KT 17/04 A2982 RMK A01 T01710041  RH  042%=      5-min Rain = 0
KWE1 200138Z 15009KT 17/04 A2982 RMK A01 T01700040  RH  042%=      5-min Rain = 0
KWE1 200139Z 15010KT 17/04 A2982 RMK A01 T01690041  RH  042%=      5-min Rain = 0
KWE1 200140Z 15010KT 17/04 A2982 RMK A01 T01690041  RH  043%=      5-min Rain = 0
KWE1 200141Z 15010KT 17/04 A2982 RMK A01 T01690041  RH  043%=      5-min Rain = 0
KWE1 200142Z 15011KT 17/04 A2982 RMK A01 T01680042  RH  043%=      5-min Rain = 0
KWE1 200143Z 15010KT 17/04 A2982 RMK A01 T01690042  RH  043%=      5-min Rain = 0
KWE1 200144Z 15011KT 17/04 A2982 RMK A01 T01700043  RH  043%=      5-min Rain = 0
KWE1 200145Z 15011KT 17/04 A2982 RMK A01 T01710044  RH  043%=      5-min Rain = 0
KWE1 200146Z 15010KT 17/04 A2982 RMK A01 T01710044  RH  043%=      5-min Rain = 0
KWE1 200147Z 15011KT 17/05 A2982 RMK A01 T01720045  RH  043%=      5-min Rain = 0
KWE1 200148Z 15011KT 17/05 A2982 RMK A01 T01730045  RH  043%=      5-min Rain = 0
KWE1 200149Z 15011KT 17/05 A2982 RMK A01 T01730045  RH  043%=      5-min Rain = 0
KWE1 200150Z 15010KT 17/05 A2982 RMK A01 T01730045  RH  043%=      5-min Rain = 0
KWE1 200151Z 15011KT 17/05 A2982 RMK A01 T01730045  RH  043%=      5-min Rain = 0
KWE1 200152Z 15010KT 17/05 A2982 RMK A01 T01730046  RH  043%=      5-min Rain = 0
KWE1 200153Z 15011KT 17/05 A2982 RMK A01 T01720046  RH  043%=      5-min Rain = 0
KWE1 200154Z 15010KT 17/05 A2982 RMK A01 T01710046  RH  043%=      5-min Rain = 0
KWE1 200155Z 15010KT 17/05 A2982 RMK A01 T01710046  RH  043%=      5-min Rain = 0
KWE1 200156Z 15010KT 17/05 A2982 RMK A01 T01710047  RH  044%=      5-min Rain = 0
KWE1 200157Z 15010KT 17/05 A2982 RMK A01 T01710047  RH  044%=      5-min Rain = 0
KWE1 200158Z 15010KT 17/05 A2982 RMK A01 T01710047  RH  044%=      5-min Rain = 0
KWE1 200159Z 15010KT 17/05 A2982 RMK A01 T01710047  RH  044%=      5-min Rain = 0
KWE1 200200Z 15011KT 17/05 A2982 RMK A01 T01710048  RH  044%=      5-min Rain = 0
KWE1 200201Z 15010KT 17/05 A2982 RMK A01 T01710048  RH  044%=      5-min Rain = 0
KWE1 200202Z 15010KT 17/05 A2982 RMK A01 T01700048  RH  044%=      5-min Rain = 0
KWE1 200203Z 15009KT 17/05 A2982 RMK A01 T01700048  RH  044%=      5-min Rain = 0
KWE1 200204Z 15010KT 17/05 A2982 RMK A01 T01700049  RH  044%=      5-min Rain = 0
KWE1 200205Z 15011KT 17/05 A2982 RMK A01 T01700048  RH  045%=      5-min Rain = 0
KWE1 200206Z 15010KT 17/05 A2982 RMK A01 T01690049  RH  045%=      5-min Rain = 0
KWE1 200207Z 15010KT 17/05 A2982 RMK A01 T01690049  RH  045%=      5-min Rain = 0
KWE1 200208Z 15011KT 17/05 A2982 RMK A01 T01690049  RH  045%=      5-min Rain = 0
KWE1 200209Z 15011KT 17/05 A2982 RMK A01 T01690049  RH  045%=      5-min Rain = 0
KWE1 200210Z 15010KT 17/05 A2982 RMK A01 T01690050  RH  045%=      5-min Rain = 0
KWE1 200211Z 15011KT 17/05 A2982 RMK A01 T01690049  RH  045%=      5-min Rain = 0
KWE1 200212Z 15010KT 17/05 A2982 RMK A01 T01690049  RH  045%=      5-min Rain = 0
KWE1 200213Z 15011KT 17/05 A2982 RMK A01 T01690050  RH  045%=      5-min Rain = 0
KWE1 200214Z 15010KT 17/05 A2982 RMK A01 T01700050  RH  045%=      5-min Rain = 0
KWE1 200215Z 15010KT 17/05 A2982 RMK A01 T01700051  RH  045%=      5-min Rain = 0
KWE1 200216Z 15010KT 17/05 A2982 RMK A01 T01690050  RH  045%=      5-min Rain = 0
KWE1 200217Z 14011KT 17/05 A2982 RMK A01 T01690051  RH  045%=      5-min Rain = 0
KWE1 200218Z 14011KT 17/05 A2982 RMK A01 T01690051  RH  046%=      5-min Rain = 0
KWE1 200219Z 15011KT 17/05 A2982 RMK A01 T01690051  RH  046%=      5-min Rain = 0
KWE1 200220Z 15010KT 17/05 A2982 RMK A01 T01690051  RH  046%=      5-min Rain = 0
KWE1 200221Z 15010KT 17/05 A2982 RMK A01 T01690052  RH  046%=      5-min Rain = 0
KWE1 200222Z 15010KT 17/05 A2982 RMK A01 T01680051  RH  046%=      5-min Rain = 0
KWE1 200223Z 15010KT 17/05 A2982 RMK A01 T01680052  RH  046%=      5-min Rain = 0
KWE1 200224Z 15010KT 17/05 A2982 RMK A01 T01680052  RH  046%=      5-min Rain = 0
KWE1 200225Z 15010KT 17/05 A2982 RMK A01 T01680052  RH  046%=      5-min Rain = 0
KWE1 200226Z 15012KT 17/05 A2982 RMK A01 T01680052  RH  046%=      5-min Rain = 0
KWE1 200227Z 14012KT 17/05 A2982 RMK A01 T01680052  RH  046%=      5-min Rain = 0
KWE1 200228Z 15010KT 17/05 A2982 RMK A01 T01680053  RH  046%=      5-min Rain = 0
KWE1 200229Z 15010KT 17/05 A2982 RMK A01 T01680052  RH  046%=      5-min Rain = 0
KWE1 200230Z 15012KT 17/05 A2982 RMK A01 T01680053  RH  047%=      5-min Rain = 0
KWE1 200231Z 15011KT 17/05 A2982 RMK A01 T01680053  RH  047%=      5-min Rain = 0
KWE1 200232Z 15011KT 17/05 A2982 RMK A01 T01670053  RH  047%=      5-min Rain = 0
KWE1 200233Z 15011KT 17/05 A2982 RMK A01 T01670053  RH  047%=      5-min Rain = 0
KWE1 200234Z 15011KT 17/05 A2982 RMK A01 T01670053  RH  047%=      5-min Rain = 0
KWE1 200235Z 15010KT 17/05 A2982 RMK A01 T01670053  RH  047%=      5-min Rain = 0
KWE1 200236Z 15011KT 17/05 A2982 RMK A01 T01670053  RH  047%=      5-min Rain = 0
KWE1 200237Z 14010KT 17/05 A2982 RMK A01 T01670053  RH  047%=      5-min Rain = 0
KWE1 200238Z 15010KT 17/05 A2982 RMK A01 T01660053  RH  047%=      5-min Rain = 0
KWE1 200239Z 15010KT 17/05 A2982 RMK A01 T01660054  RH  047%=      5-min Rain = 0
KWE1 200240Z 15010KT 17/05 A2982 RMK A01 T01660054  RH  047%=      5-min Rain = 0
KWE1 200241Z 15010KT 17/05 A2982 RMK A01 T01660054  RH  047%=      5-min Rain = 0
KWE1 200242Z 15010KT 17/05 A2982 RMK A01 T01670054  RH  047%=      5-min Rain = 0
KWE1 200243Z 15011KT 17/05 A2982 RMK A01 T01670054  RH  047%=      5-min Rain = 0
KWE1 200244Z 15010KT 17/05 A2982 RMK A01 T01670054  RH  047%=      5-min Rain = 0
KWE1 200245Z 15010KT 17/05 A2982 RMK A01 T01680054  RH  047%=      5-min Rain = 0
KWE1 200246Z 15011KT 17/06 A2982 RMK A01 T01680055  RH  047%=      5-min Rain = 0
KWE1 200247Z 15011KT 17/06 A2982 RMK A01 T01680055  RH  047%=      5-min Rain = 0
KWE1 200248Z 15010KT 17/06 A2982 RMK A01 T01690055  RH  047%=      5-min Rain = 0
KWE1 200249Z 15011KT 17/06 A2982 RMK A01 T01690055  RH  047%=      5-min Rain = 0
KWE1 200250Z 15011KT 17/06 A2982 RMK A01 T01700055  RH  047%=      5-min Rain = 0
KWE1 200251Z 15011KT 17/06 A2982 RMK A01 T01700056  RH  047%=      5-min Rain = 0
KWE1 200252Z 15012KT 17/06 A2982 RMK A01 T01700056  RH  047%=      5-min Rain = 0
KWE1 200253Z 15011KT 17/06 A2982 RMK A01 T01710056  RH  047%=      5-min Rain = 0
KWE1 200254Z 16012KT 17/06 A2982 RMK A01 T01710056  RH  046%=      5-min Rain = 0
KWE1 200255Z 15011KT 17/06 A2982 RMK A01 T01720056  RH  046%=      5-min Rain = 0
KWE1 200256Z 15012KT 17/06 A2982 RMK A01 T01720056  RH  046%=      5-min Rain = 0
KWE1 200257Z 15012KT 17/06 A2982 RMK A01 T01720056  RH  046%=      5-min Rain = 0
KWE1 200258Z 15011KT 17/06 A2982 RMK A01 T01730056  RH  046%=      5-min Rain = 0
KWE1 200259Z 15011KT 17/06 A2982 RMK A01 T01730056  RH  046%=      5-min Rain = 0
KWE1 200300Z 16011KT 17/06 A2982 RMK A01 T01730057  RH  046%=      5-min Rain = 0
KWE1 200301Z 15011KT 17/06 A2983 RMK A01 T01730057  RH  046%=      5-min Rain = 0
KWE1 200302Z 16011KT 17/06 A2983 RMK A01 T01730057  RH  046%=      5-min Rain = 0
KWE1 200303Z 16010KT 17/06 A2983 RMK A01 T01720057  RH  046%=      5-min Rain = 0
KWE1 200304Z 16011KT 17/06 A2983 RMK A01 T01720057  RH  047%=      5-min Rain = 0
KWE1 200305Z 16011KT 17/06 A2983 RMK A01 T01720057  RH  046%=      5-min Rain = 0
KWE1 200306Z 16011KT 17/06 A2983 RMK A01 T01730057  RH  046%=      5-min Rain = 0
KWE1 200307Z 16012KT 17/06 A2983 RMK A01 T01730057  RH  046%=      5-min Rain = 0
KWE1 200308Z 16012KT 17/06 A2983 RMK A01 T01730057  RH  046%=      5-min Rain = 0
KWE1 200309Z 15011KT 17/06 A2983 RMK A01 T01730057  RH  046%=      5-min Rain = 0
KWE1 200310Z 16009KT 17/06 A2983 RMK A01 T01730057  RH  046%=      5-min Rain = 0
KWE1 200311Z 16011KT 17/06 A2983 RMK A01 T01730057  RH  047%=      5-min Rain = 0
KWE1 200312Z 16011KT 17/06 A2983 RMK A01 T01720057  RH  047%=      5-min Rain = 0
KWE1 200313Z 15011KT 17/06 A2983 RMK A01 T01720057  RH  047%=      5-min Rain = 0
KWE1 200314Z 16012KT 17/06 A2982 RMK A01 T01720057  RH  047%=      5-min Rain = 0
KWE1 200315Z 16012KT 17/06 A2982 RMK A01 T01720057  RH  047%=      5-min Rain = 0
KWE1 200316Z 15010KT 17/06 A2982 RMK A01 T01720057  RH  047%=      5-min Rain = 0
KWE1 200317Z 16011KT 17/06 A2982 RMK A01 T01720057  RH  047%=      5-min Rain = 0
KWE1 200318Z 16011KT 17/06 A2982 RMK A01 T01720057  RH  047%=      5-min Rain = 0
KWE1 200319Z 16010KT 17/06 A2982 RMK A01 T01720057  RH  047%=      5-min Rain = 0
KWE1 200320Z 16010KT 17/06 A2982 RMK A01 T01720057  RH  047%=      5-min Rain = 0
KWE1 200321Z 16011KT 17/06 A2982 RMK A01 T01710057  RH  047%=      5-min Rain = 0
KWE1 200322Z 16012KT 17/06 A2982 RMK A01 T01710058  RH  047%=      5-min Rain = 0
KWE1 200323Z 15010KT 17/06 A2982 RMK A01 T01710058  RH  047%=      5-min Rain = 0
KWE1 200324Z 15010KT 17/06 A2982 RMK A01 T01710058  RH  047%=      5-min Rain = 0
KWE1 200325Z 15011KT 17/06 A2982 RMK A01 T01710058  RH  047%=      5-min Rain = 0
KWE1 200326Z 16011KT 17/06 A2982 RMK A01 T01710058  RH  047%=      5-min Rain = 0
KWE1 200327Z 15011KT 17/06 A2982 RMK A01 T01710058  RH  047%=      5-min Rain = 0
KWE1 200328Z 15012KT 17/06 A2983 RMK A01 T01700058  RH  047%=      5-min Rain = 0
KWE1 200329Z 16011KT 17/06 A2983 RMK A01 T01700058  RH  048%=      5-min Rain = 0
KWE1 200330Z 16011KT 17/06 A2983 RMK A01 T01700058  RH  048%=      5-min Rain = 0
KWE1 200331Z 16011KT 17/06 A2983 RMK A01 T01700058  RH  048%=      5-min Rain = 0
KWE1 200332Z 16011KT 17/06 A2983 RMK A01 T01690058  RH  048%=      5-min Rain = 0
KWE1 200333Z 15010KT 17/06 A2983 RMK A01 T01680058  RH  048%=      5-min Rain = 0
KWE1 200334Z 16010KT 17/06 A2983 RMK A01 T01680058  RH  048%=      5-min Rain = 0
KWE1 200335Z 15011KT 17/06 A2982 RMK A01 T01680058  RH  048%=      5-min Rain = 0
KWE1 200336Z 15010KT 17/06 A2982 RMK A01 T01670058  RH  049%=      5-min Rain = 0
KWE1 200337Z 16011KT 17/06 A2982 RMK A01 T01670058  RH  049%=      5-min Rain = 0
KWE1 200338Z 16011KT 17/06 A2983 RMK A01 T01670058  RH  049%=      5-min Rain = 0
KWE1 200339Z 16011KT 17/06 A2983 RMK A01 T01670059  RH  049%=      5-min Rain = 0
KWE1 200340Z 16010KT 17/06 A2983 RMK A01 T01670058  RH  049%=      5-min Rain = 0
KWE1 200341Z 16011KT 17/06 A2983 RMK A01 T01660059  RH  049%=      5-min Rain = 0
KWE1 200342Z 16010KT 17/06 A2983 RMK A01 T01660059  RH  049%=      5-min Rain = 0
KWE1 200343Z 16011KT 17/06 A2983 RMK A01 T01660059  RH  049%=      5-min Rain = 0
KWE1 200344Z 16010KT 17/06 A2983 RMK A01 T01660059  RH  049%=      5-min Rain = 0
KWE1 200345Z 16011KT 17/06 A2983 RMK A01 T01660059  RH  049%=      5-min Rain = 0
KWE1 200346Z 16010KT 17/06 A2983 RMK A01 T01660059  RH  049%=      5-min Rain = 0
KWE1 200347Z 16010KT 17/06 A2983 RMK A01 T01660059  RH  049%=      5-min Rain = 0
KWE1 200348Z 16011KT 17/06 A2983 RMK A01 T01660059  RH  049%=      5-min Rain = 0
KWE1 200349Z 16011KT 17/06 A2983 RMK A01 T01660059  RH  049%=      5-min Rain = 0
KWE1 200350Z 16010KT 17/06 A2983 RMK A01 T01660060  RH  049%=      5-min Rain = 0
KWE1 200351Z 16011KT 17/06 A2983 RMK A01 T01660060  RH  049%=      5-min Rain = 0
KWE1 200352Z 15010KT 17/06 A2983 RMK A01 T01670060  RH  049%=      5-min Rain = 0
KWE1 200353Z 16010KT 17/06 A2983 RMK A01 T01670060  RH  049%=      5-min Rain = 0
KWE1 200354Z 16011KT 17/06 A2983 RMK A01 T01660060  RH  049%=      5-min Rain = 0
KWE1 200355Z 16010KT 17/06 A2983 RMK A01 T01660060  RH  050%=      5-min Rain = 0
KWE1 200356Z 16011KT 17/06 A2983 RMK A01 T01660060  RH  050%=      5-min Rain = 0
KWE1 200357Z 16010KT 17/06 A2983 RMK A01 T01660060  RH  049%=      5-min Rain = 0
KWE1 200358Z 16010KT 17/06 A2983 RMK A01 T01660060  RH  049%=      5-min Rain = 0
KWE1 200359Z 16012KT 17/06 A2983 RMK A01 T01670060  RH  049%=      5-min Rain = 0
KWE1 200400Z 16011KT 17/06 A2983 RMK A01 T01670060  RH  049%=      5-min Rain = 0
KWE1 200401Z 16010KT 17/06 A2983 RMK A01 T01660060  RH  050%=      5-min Rain = 0
KWE1 200402Z 16010KT 17/06 A2983 RMK A01 T01660060  RH  050%=      5-min Rain = 0
KWE1 200403Z 16010KT 17/06 A2983 RMK A01 T01650061  RH  050%=      5-min Rain = 0
KWE1 200404Z 16010KT 17/06 A2983 RMK A01 T01650061  RH  050%=      5-min Rain = 0
KWE1 200405Z 16011KT 17/06 A2983 RMK A01 T01650061  RH  050%=      5-min Rain = 0
KWE1 200406Z 16011KT 17/06 A2983 RMK A01 T01650061  RH  050%=      5-min Rain = 0
KWE1 200407Z 16010KT 17/06 A2983 RMK A01 T01660061  RH  050%=      5-min Rain = 0
KWE1 200408Z 16010KT 17/06 A2983 RMK A01 T01650061  RH  050%=      5-min Rain = 0
KWE1 200409Z 15011G16KT 17/06 A2983 RMK A01 T01650061  RH  050%=      5-min Rain = 0
KWE1 200410Z 16011KT 16/06 A2983 RMK A01 T01640061  RH  051%=      5-min Rain = 0
KWE1 200411Z 16010KT 16/06 A2983 RMK A01 T01640061  RH  051%=      5-min Rain = 0
KWE1 200412Z 16010KT 16/06 A2983 RMK A01 T01630061  RH  051%=      5-min Rain = 0
KWE1 200413Z 15011KT 16/06 A2983 RMK A01 T01630061  RH  051%=      5-min Rain = 0
KWE1 200414Z 16011KT 16/06 A2984 RMK A01 T01620061  RH  051%=      5-min Rain = 0
KWE1 200415Z 16009KT 16/06 A2984 RMK A01 T01620061  RH  051%=      5-min Rain = 0
KWE1 200416Z 16011KT 16/06 A2984 RMK A01 T01620062  RH  051%=      5-min Rain = 0
KWE1 200417Z 15011KT 16/06 A2984 RMK A01 T01620062  RH  051%=      5-min Rain = 0
KWE1 200418Z 16009KT 16/06 A2984 RMK A01 T01620062  RH  051%=      5-min Rain = 0
KWE1 200419Z 16010KT 16/06 A2984 RMK A01 T01620062  RH  051%=      5-min Rain = 0
KWE1 200420Z 15010KT 16/06 A2984 RMK A01 T01620062  RH  052%=      5-min Rain = 0
KWE1 200421Z 15010KT 16/06 A2984 RMK A01 T01620063  RH  052%=      5-min Rain = 0
KWE1 200422Z 16010KT 16/06 A2984 RMK A01 T01620063  RH  052%=      5-min Rain = 0
KWE1 200423Z 16009KT 16/06 A2984 RMK A01 T01620062  RH  052%=      5-min Rain = 0
KWE1 200424Z 15010KT 16/06 A2984 RMK A01 T01620063  RH  052%=      5-min Rain = 0
KWE1 200425Z 16011KT 16/06 A2984 RMK A01 T01610063  RH  052%=      5-min Rain = 0
KWE1 200426Z 16010KT 16/06 A2984 RMK A01 T01610063  RH  052%=      5-min Rain = 0
KWE1 200427Z 16010KT 16/06 A2984 RMK A01 T01610064  RH  052%=      5-min Rain = 0
KWE1 200428Z 16010KT 16/06 A2984 RMK A01 T01610063  RH  052%=      5-min Rain = 0
KWE1 200429Z 16010KT 16/06 A2984 RMK A01 T01610064  RH  052%=      5-min Rain = 0
KWE1 200430Z 16011KT 16/06 A2984 RMK A01 T01610064  RH  053%=      5-min Rain = 0
KWE1 200431Z 16010KT 16/06 A2984 RMK A01 T01610064  RH  053%=      5-min Rain = 0
KWE1 200432Z 16010KT 16/06 A2984 RMK A01 T01600064  RH  053%=      5-min Rain = 0
KWE1 200433Z 16010KT 16/07 A2984 RMK A01 T01600065  RH  053%=      5-min Rain = 0
KWE1 200434Z 16010KT 16/07 A2984 RMK A01 T01610065  RH  053%=      5-min Rain = 0
KWE1 200435Z 16012KT 16/07 A2984 RMK A01 T01610065  RH  053%=      5-min Rain = 0
KWE1 200436Z 16011KT 16/07 A2984 RMK A01 T01620066  RH  053%=      5-min Rain = 0
KWE1 200437Z 16010KT 16/07 A2984 RMK A01 T01620065  RH  053%=      5-min Rain = 0
KWE1 200438Z 15009KT 16/07 A2984 RMK A01 T01620066  RH  053%=      5-min Rain = 0
KWE1 200439Z 15010KT 16/07 A2984 RMK A01 T01620066  RH  053%=      5-min Rain = 0
KWE1 200440Z 16011KT 16/07 A2984 RMK A01 T01610066  RH  053%=      5-min Rain = 0
KWE1 200441Z 16010KT 16/07 A2984 RMK A01 T01610066  RH  053%=      5-min Rain = 0
KWE1 200442Z 16011KT 16/07 A2984 RMK A01 T01610066  RH  053%=      5-min Rain = 0
KWE1 200443Z 16011KT 16/07 A2984 RMK A01 T01620067  RH  053%=      5-min Rain = 0
KWE1 200444Z 16009KT 16/07 A2984 RMK A01 T01640067  RH  053%=      5-min Rain = 0
KWE1 200445Z 15011G16KT 16/07 A2984 RMK A01 T01630067  RH  053%=      5-min Rain = 0
KWE1 200446Z 15010KT 16/07 A2984 RMK A01 T01630067  RH  053%=      5-min Rain = 0
KWE1 200447Z 16011KT 16/07 A2984 RMK A01 T01640067  RH  053%=      5-min Rain = 0
KWE1 200448Z 16010KT 16/07 A2984 RMK A01 T01630067  RH  053%=      5-min Rain = 0
KWE1 200449Z 16010KT 16/07 A2984 RMK A01 T01630067  RH  053%=      5-min Rain = 0
KWE1 200450Z 15012KT 16/07 A2984 RMK A01 T01630067  RH  053%=      5-min Rain = 0
KWE1 200451Z 16011KT 16/07 A2984 RMK A01 T01630068  RH  053%=      5-min Rain = 0
KWE1 200452Z 16011KT 16/07 A2984 RMK A01 T01630068  RH  053%=      5-min Rain = 0
KWE1 200453Z 16011KT 16/07 A2984 RMK A01 T01630068  RH  053%=      5-min Rain = 0
KWE1 200454Z 16010KT 16/07 A2984 RMK A01 T01630068  RH  054%=      5-min Rain = 0
KWE1 200455Z 16010KT 16/07 A2984 RMK A01 T01630069  RH  054%=      5-min Rain = 0
KWE1 200456Z 16010KT 16/07 A2984 RMK A01 T01620068  RH  054%=      5-min Rain = 0
KWE1 200457Z 16012KT 16/07 A2984 RMK A01 T01610069  RH  054%=      5-min Rain = 0
KWE1 200458Z 16013KT 16/07 A2984 RMK A01 T01610069  RH  054%=      5-min Rain = 0
KWE1 200459Z 16012KT 16/07 A2984 RMK A01 T01620069  RH  054%=      5-min Rain = 0
KWE1 200500Z 16010KT 16/07 A2984 RMK A01 T01620069  RH  054%=      5-min Rain = 0
KWE1 200501Z 16011KT 16/07 A2984 RMK A01 T01620069  RH  054%=      5-min Rain = 0
KWE1 200502Z 16011KT 16/07 A2984 RMK A01 T01610069  RH  054%=      5-min Rain = 0
KWE1 200503Z 16011KT 16/07 A2984 RMK A01 T01610070  RH  054%=      5-min Rain = 0
KWE1 200504Z 16011KT 16/07 A2984 RMK A01 T01610070  RH  055%=      5-min Rain = 0
KWE1 200505Z 16011KT 16/07 A2984 RMK A01 T01610070  RH  055%=      5-min Rain = 0
KWE1 200506Z 16010KT 16/07 A2984 RMK A01 T01610070  RH  055%=      5-min Rain = 0
KWE1 200507Z 16011KT 16/07 A2984 RMK A01 T01610070  RH  055%=      5-min Rain = 0
KWE1 200508Z 16010KT 16/07 A2984 RMK A01 T01620071  RH  055%=      5-min Rain = 0
KWE1 200509Z 16011KT 16/07 A2984 RMK A01 T01610071  RH  055%=      5-min Rain = 0
KWE1 200510Z 16011G17KT 16/07 A2984 RMK A01 T01610071  RH  055%=      5-min Rain = 0
KWE1 200511Z 16011KT 16/07 A2984 RMK A01 T01620071  RH  055%=      5-min Rain = 0
KWE1 200512Z 16011KT 16/07 A2984 RMK A01 T01620071  RH  055%=      5-min Rain = 0
KWE1 200513Z 16011KT 16/07 A2984 RMK A01 T01620072  RH  055%=      5-min Rain = 0
KWE1 200514Z 16012KT 16/07 A2984 RMK A01 T01620072  RH  055%=      5-min Rain = 0
KWE1 200515Z 16011KT 16/07 A2984 RMK A01 T01630073  RH  055%=      5-min Rain = 0
KWE1 200516Z 16010KT 16/07 A2984 RMK A01 T01640073  RH  055%=      5-min Rain = 0
KWE1 200517Z 16011KT 16/07 A2984 RMK A01 T01640073  RH  055%=      5-min Rain = 0
KWE1 200518Z 16012KT 17/07 A2984 RMK A01 T01650073  RH  055%=      5-min Rain = 0
KWE1 200519Z 16011KT 16/07 A2984 RMK A01 T01640073  RH  055%=      5-min Rain = 0
KWE1 200520Z 16011KT 17/07 A2984 RMK A01 T01650073  RH  055%=      5-min Rain = 0
KWE1 200521Z 16010KT 16/07 A2984 RMK A01 T01640073  RH  055%=      5-min Rain = 0
KWE1 200522Z 16010KT 17/07 A2984 RMK A01 T01650073  RH  055%=      5-min Rain = 0
KWE1 200523Z 16010KT 16/07 A2984 RMK A01 T01640073  RH  055%=      5-min Rain = 0
KWE1 200524Z 16010KT 16/07 A2984 RMK A01 T01640073  RH  055%=      5-min Rain = 0
KWE1 200525Z 16012KT 16/07 A2984 RMK A01 T01640073  RH  055%=      5-min Rain = 0
KWE1 200526Z 16012KT 16/07 A2984 RMK A01 T01630073  RH  055%=      5-min Rain = 0
KWE1 200527Z 16011KT 16/07 A2984 RMK A01 T01640073  RH  055%=      5-min Rain = 0
KWE1 200528Z 16012KT 16/07 A2984 RMK A01 T01640073  RH  055%=      5-min Rain = 0
KWE1 200529Z 16011KT 16/07 A2984 RMK A01 T01630073  RH  055%=      5-min Rain = 0
KWE1 200530Z 16010KT 16/07 A2984 RMK A01 T01630073  RH  055%=      5-min Rain = 0
KWE1 200531Z 16011KT 16/07 A2984 RMK A01 T01630073  RH  055%=      5-min Rain = 0
KWE1 200532Z 16011KT 16/07 A2984 RMK A01 T01620073  RH  056%=      5-min Rain = 0
KWE1 200533Z 16010KT 16/07 A2984 RMK A01 T01630073  RH  056%=      5-min Rain = 0
KWE1 200534Z 16011KT 16/07 A2984 RMK A01 T01620073  RH  056%=      5-min Rain = 0
KWE1 200535Z 16011KT 16/07 A2984 RMK A01 T01610073  RH  056%=      5-min Rain = 0
KWE1 200536Z 16011KT 16/07 A2984 RMK A01 T01610073  RH  056%=      5-min Rain = 0
KWE1 200537Z 16011KT 16/07 A2984 RMK A01 T01610073  RH  056%=      5-min Rain = 0
KWE1 200538Z 16011KT 16/07 A2984 RMK A01 T01600073  RH  056%=      5-min Rain = 0
KWE1 200539Z 16010KT 16/07 A2984 RMK A01 T01600073  RH  056%=      5-min Rain = 0
KWE1 200540Z 16010KT 16/07 A2984 RMK A01 T01590073  RH  057%=      5-min Rain = 0
KWE1 200541Z 16010KT 16/07 A2984 RMK A01 T01580073  RH  057%=      5-min Rain = 0
KWE1 200542Z 16010KT 16/07 A2983 RMK A01 T01580073  RH  057%=      5-min Rain = 0
KWE1 200543Z 16011KT 16/07 A2983 RMK A01 T01570073  RH  057%=      5-min Rain = 0
KWE1 200544Z 15011KT 16/07 A2983 RMK A01 T01580074  RH  057%=      5-min Rain = 0
KWE1 200545Z 16011KT 16/07 A2983 RMK A01 T01580074  RH  057%=      5-min Rain = 0
KWE1 200546Z 16011KT 16/07 A2983 RMK A01 T01580074  RH  057%=      5-min Rain = 0
KWE1 200547Z 16011KT 16/07 A2983 RMK A01 T01580074  RH  057%=      5-min Rain = 0
KWE1 200548Z 15011KT 16/07 A2983 RMK A01 T01580074  RH  057%=      5-min Rain = 0
KWE1 200549Z 16011KT 16/07 A2983 RMK A01 T01580074  RH  058%=      5-min Rain = 0
KWE1 200550Z 16012KT 16/07 A2983 RMK A01 T01570074  RH  058%=      5-min Rain = 0
KWE1 200551Z 16010KT 16/07 A2983 RMK A01 T01580074  RH  057%=      5-min Rain = 0
KWE1 200552Z 16010KT 16/07 A2983 RMK A01 T01590074  RH  057%=      5-min Rain = 0
KWE1 200553Z 15011KT 16/07 A2983 RMK A01 T01580074  RH  057%=      5-min Rain = 0
KWE1 200554Z 16011KT 16/07 A2983 RMK A01 T01570074  RH  058%=      5-min Rain = 0
KWE1 200555Z 16011KT 16/07 A2983 RMK A01 T01570074  RH  058%=      5-min Rain = 0
KWE1 200556Z 16010KT 16/07 A2983 RMK A01 T01560073  RH  058%=      5-min Rain = 0
KWE1 200557Z 16010KT 16/07 A2983 RMK A01 T01550073  RH  058%=      5-min Rain = 0
KWE1 200558Z 16010KT 15/07 A2983 RMK A01 T01540073  RH  059%=      5-min Rain = 0
KWE1 200559Z 17010KT 15/07 A2983 RMK A01 T01530073  RH  059%=      5-min Rain = 0

Page generated in 0.0706 seconds.